| time (UTC) | temp C | wind direction | speed KPH | gust KPH | rain 1hr cm | rain 24hr cm | rain mn cm | humidity % | barometer mb |
| 20260905232032 | 30 | 96 | 9.7 | 0.0 | 0.00 | 0.00 | 0.00 | 55 | 1009.0 |
| 20260905231933 | 30 | 93 | 9.7 | 0.0 | 0.00 | 0.00 | 0.00 | 55 | 1009.0 |
| 20260905231854 | 30 | 93 | 9.7 | 0.0 | 0.00 | 0.00 | 0.00 | 54 | 1009.0 |
| 20260905231728 | 30 | 134 | 9.7 | 0.0 | 0.00 | 0.00 | 0.00 | 55 | 1009.0 |
| 20260905231641 | 30 | 116 | 8.0 | 0.0 | 0.00 | 0.00 | 0.00 | 55 | 1009.0 |
| 20260905231526 | 30 | 106 | 8.0 | 0.0 | 0.00 | 0.00 | 0.00 | 55 | 1009.0 |
| 20260905231426 | 30 | 117 | 8.0 | 0.0 | 0.00 | 0.00 | 0.00 | 55 | 1009.0 |
| 20260905231327 | 30 | 116 | 8.0 | 0.0 | 0.00 | 0.00 | 0.00 | 55 | 1009.0 |
| 20260905231228 | 30 | 121 | 8.0 | 0.0 | 0.00 | 0.00 | 0.00 | 55 | 1009.9 |
| 20260905231149 | 30 | 123 | 8.0 | 0.0 | 0.00 | 0.00 | 0.00 | 54 | 1009.9 |
| 20260905231033 | 30 | 127 | 8.0 | 0.0 | 0.00 | 0.00 | 0.00 | 54 | 1009.9 |
| 20260905230935 | 30 | 126 | 9.7 | 17.7 | 0.00 | 0.00 | 0.00 | 53 | 1009.9 |
| 20260905230834 | 31 | 131 | 6.4 | 17.7 | 0.00 | 0.00 | 0.00 | 52 | 1009.9 |
| 20260905230752 | 31 | 131 | 8.0 | 17.7 | 0.00 | 0.00 | 0.00 | 53 | 1009.9 |
| 20260905230630 | 31 | 131 | 6.4 | 17.7 | 0.00 | 0.00 | 0.00 | 53 | 1009.9 |
| 20260905230532 | 31 | 126 | 11.3 | 17.7 | 0.00 | 0.00 | 0.00 | 53 | 1009.9 |
| 20260905230431 | 31 | 127 | 8.0 | 22.5 | 0.00 | 0.00 | 0.00 | 53 | 1009.9 |
| 20260905230350 | 31 | 131 | 9.7 | 22.5 | 0.00 | 0.00 | 0.00 | 53 | 1009.9 |
| 20260905230243 | 31 | 130 | 9.7 | 22.5 | 0.00 | 0.00 | 0.00 | 52 | 1009.9 |
| 20260905230154 | 31 | 119 | 11.3 | 22.5 | 0.00 | 0.00 | 0.00 | 52 | 1009.9 |
| 20260905230031 | 31 | 110 | 12.9 | 22.5 | 0.00 | 0.00 | 0.00 | 51 | 1009.9 |
| 20260905225929 | 31 | 114 | 12.9 | 22.5 | 0.00 | 0.00 | 0.00 | 52 | 1009.9 |
| 20260905225849 | 31 | 116 | 11.3 | 22.5 | 0.00 | 0.00 | 0.00 | 52 | 1009.9 |
| 20260905225728 | 31 | 113 | 11.3 | 22.5 | 0.00 | 0.00 | 0.00 | 51 | 1009.7 |
| 20260905225628 | 31 | 112 | 16.1 | 22.5 | 0.00 | 0.00 | 0.00 | 51 | 1009.7 |
| 20260905225527 | 31 | 114 | 12.9 | 20.9 | 0.00 | 0.00 | 0.00 | 51 | 1009.7 |
| 20260905225428 | 32 | 82 | 11.3 | 17.7 | 0.00 | 0.00 | 0.00 | 51 | 1009.7 |
| 20260905225328 | 32 | 88 | 11.3 | 17.7 | 0.00 | 0.00 | 0.00 | 53 | 1009.7 |
| 20260905225227 | 32 | 104 | 11.3 | 16.1 | 0.00 | 0.00 | 0.00 | 52 | 1009.7 |
| 20260905225125 | 32 | 113 | 8.0 | 16.1 | 0.00 | 0.00 | 0.00 | 52 | 1009.7 |
| 20260905225024 | 32 | 109 | 3.2 | 16.1 | 0.00 | 0.00 | 0.00 | 51 | 1009.7 |
| 20260905224943 | 32 | 150 | 4.8 | 16.1 | 0.00 | 0.00 | 0.00 | 51 | 1009.7 |
| 20260905224825 | 32 | 148 | 6.4 | 16.1 | 0.00 | 0.00 | 0.00 | 51 | 1009.7 |
| 20260905224745 | 32 | 145 | 9.7 | 16.1 | 0.00 | 0.00 | 0.00 | 50 | 1009.7 |
| 20260905224655 | 32 | 112 | 11.3 | 16.1 | 0.00 | 0.00 | 0.00 | 52 | 1009.7 |
| 20260905224532 | 32 | 145 | 8.0 | 14.5 | 0.00 | 0.00 | 0.00 | 51 | 1009.7 |
| 20260905224430 | 32 | 112 | 9.7 | 12.9 | 0.00 | 0.00 | 0.00 | 54 | 1009.7 |
| 20260905224330 | 32 | 32 | 4.8 | 8.0 | 0.00 | 0.00 | 0.00 | 53 | 1009.7 |
| 20260905224229 | 32 | 30 | 1.6 | 4.8 | 0.00 | 0.00 | 0.00 | 52 | 1009.9 |
| 20260905224149 | 32 | 24 | 1.6 | 4.8 | 0.00 | 0.00 | 0.00 | 50 | 1009.9 |
| 20260905224030 | 32 | 30 | 3.2 | 4.8 | 0.00 | 0.00 | 0.00 | 52 | 1009.9 |
| 20260905223931 | 32 | 30 | 1.6 | 8.0 | 0.00 | 0.00 | 0.00 | 51 | 1009.9 |
| 20260905223829 | 32 | 30 | 1.6 | 8.0 | 0.00 | 0.00 | 0.00 | 50 | 1009.9 |
| 20260905223747 | 32 | 30 | 1.6 | 8.0 | 0.00 | 0.00 | 0.00 | 50 | 1009.9 |
| 20260905223644 | 32 | 31 | 3.2 | 8.0 | 0.00 | 0.00 | 0.00 | 50 | 1009.9 |
| 20260905223543 | 32 | 31 | 1.6 | 8.0 | 0.00 | 0.00 | 0.00 | 50 | 1009.9 |
| 20260905223443 | 32 | 31 | 3.2 | 8.0 | 0.00 | 0.00 | 0.00 | 51 | 1009.9 |
| 20260905223342 | 32 | 31 | 3.2 | 8.0 | 0.00 | 0.00 | 0.00 | 50 | 1009.9 |
| 20260905223244 | 32 | 32 | 1.6 | 8.0 | 0.00 | 0.00 | 0.00 | 50 | 1009.9 |
| 20260905223215 | 32 | 32 | 1.6 | 8.0 | 0.00 | 0.00 | 0.00 | 50 | 1009.9 |
| 20260905223052 | 32 | 35 | 3.2 | 8.0 | 0.00 | 0.00 | 0.00 | 49 | 1009.9 |
| 20260905222928 | 32 | 322 | 1.6 | 4.8 | 0.00 | 0.00 | 0.00 | 48 | 1009.9 |
| 20260905222847 | 32 | 318 | 4.8 | 4.8 | 0.00 | 0.00 | 0.00 | 48 | 1009.9 |
| 20260905222743 | 32 | 319 | 4.8 | 4.8 | 0.00 | 0.00 | 0.00 | 48 | 1009.8 |
| 20260905222642 | 32 | 319 | 3.2 | 4.8 | 0.00 | 0.00 | 0.00 | 48 | 1009.8 |
| 20260905222541 | 32 | 320 | 3.2 | 4.8 | 0.00 | 0.00 | 0.00 | 48 | 1009.8 |
| 20260905222439 | 32 | 316 | 3.2 | 4.8 | 0.00 | 0.00 | 0.00 | 49 | 1009.8 |
| 20260905222342 | 32 | 318 | 3.2 | 4.8 | 0.00 | 0.00 | 0.00 | 49 | 1009.8 |
| 20260905222240 | 32 | 319 | 3.2 | 4.8 | 0.00 | 0.00 | 0.00 | 49 | 1009.8 |
| 20260905222139 | 32 | 319 | 1.6 | 4.8 | 0.00 | 0.00 | 0.00 | 49 | 1009.8 |
| 20260905222037 | 32 | 319 | 3.2 | 4.8 | 0.00 | 0.00 | 0.00 | 49 | 1009.8 |
| 20260905221937 | 32 | 316 | 3.2 | 4.8 | 0.00 | 0.00 | 0.00 | 49 | 1009.8 |
| 20260905221855 | 32 | 319 | 3.2 | 9.7 | 0.00 | 0.00 | 0.00 | 49 | 1009.8 |
| 20260905221733 | 32 | 316 | 1.6 | 9.7 | 0.00 | 0.00 | 0.00 | 49 | 1009.8 |
| 20260905221706 | 32 | 318 | 1.6 | 9.7 | 0.00 | 0.00 | 0.00 | 49 | 1009.8 |
| 20260905221605 | 32 | 319 | 0.0 | 9.7 | 0.00 | 0.00 | 0.00 | 48 | 1009.8 |
| 20260905221503 | 32 | 318 | 1.6 | 9.7 | 0.00 | 0.00 | 0.00 | 48 | 1009.8 |
| 20260905221341 | 32 | 318 | 1.6 | 9.7 | 0.00 | 0.00 | 0.00 | 48 | 1009.8 |
| 20260905221239 | 32 | 318 | 3.2 | 9.7 | 0.00 | 0.00 | 0.00 | 48 | 1009.9 |
| 20260905221158 | 32 | 318 | 1.6 | 9.7 | 0.00 | 0.00 | 0.00 | 48 | 1009.9 |
| 20260905221035 | 32 | 323 | 3.2 | 9.7 | 0.00 | 0.00 | 0.00 | 48 | 1009.9 |
| 20260905220953 | 32 | 323 | 8.0 | 11.3 | 0.00 | 0.00 | 0.00 | 47 | 1009.9 |
| 20260905220831 | 32 | 332 | 8.0 | 11.3 | 0.00 | 0.00 | 0.00 | 48 | 1009.9 |
| 20260905220733 | 32 | 332 | 6.4 | 12.9 | 0.00 | 0.00 | 0.00 | 48 | 1009.9 |
| 20260905220633 | 32 | 325 | 4.8 | 12.9 | 0.00 | 0.00 | 0.00 | 48 | 1009.9 |
| 20260905220532 | 32 | 318 | 6.4 | 12.9 | 0.00 | 0.00 | 0.00 | 49 | 1009.9 |
| 20260905220432 | 32 | 312 | 3.2 | 12.9 | 0.00 | 0.00 | 0.00 | 49 | 1009.9 |
| 20260905220331 | 32 | 312 | 0.0 | 12.9 | 0.00 | 0.00 | 0.00 | 48 | 1009.9 |
| 20260905220229 | 32 | 312 | 1.6 | 12.9 | 0.00 | 0.00 | 0.00 | 48 | 1009.9 |
| 20260905220200 | 32 | 312 | 6.4 | 12.9 | 0.00 | 0.00 | 0.00 | 48 | 1009.9 |
| 20260905220042 | 32 | 342 | 9.7 | 12.9 | 0.00 | 0.00 | 0.00 | 49 | 1009.9 |
| 20260905215939 | 32 | 328 | 8.0 | 12.9 | 0.00 | 0.00 | 0.00 | 49 | 1009.9 |
| 20260905215838 | 32 | 326 | 9.7 | 11.3 | 0.00 | 0.00 | 0.00 | 48 | 1009.9 |
| 20260905215738 | 32 | 340 | 8.0 | 11.3 | 0.00 | 0.00 | 0.00 | 49 | 1009.9 |
| 20260905215636 | 32 | 337 | 4.8 | 11.3 | 0.00 | 0.00 | 0.00 | 49 | 1009.9 |
| 20260905215534 | 32 | 339 | 4.8 | 11.3 | 0.00 | 0.00 | 0.00 | 48 | 1009.9 |
| 20260905215438 | 32 | 354 | 1.6 | 9.7 | 0.00 | 0.00 | 0.00 | 48 | 1009.9 |
| 20260905215338 | 32 | 353 | 3.2 | 9.7 | 0.00 | 0.00 | 0.00 | 48 | 1009.9 |
| 20260905215235 | 32 | 357 | 3.2 | 9.7 | 0.00 | 0.00 | 0.00 | 48 | 1009.9 |
| 20260905215133 | 32 | 357 | 4.8 | 9.7 | 0.00 | 0.00 | 0.00 | 48 | 1009.9 |
| 20260905215031 | 32 | 354 | 4.8 | 9.7 | 0.00 | 0.00 | 0.00 | 48 | 1009.9 |
| 20260905214929 | 32 | 356 | 6.4 | 9.7 | 0.00 | 0.00 | 0.00 | 48 | 1009.9 |
| 20260905214828 | 32 | 322 | 3.2 | 9.7 | 0.00 | 0.00 | 0.00 | 47 | 1009.9 |
| 20260905214730 | 32 | 326 | 3.2 | 9.7 | 0.00 | 0.00 | 0.00 | 47 | 1009.9 |
| 20260905214700 | 32 | 360 | 1.6 | 9.7 | 0.00 | 0.00 | 0.00 | 47 | 1009.9 |
| 20260905214558 | 32 | 359 | 3.2 | 9.7 | 0.00 | 0.00 | 0.00 | 47 | 1009.9 |
| 20260905214456 | 32 | 360 | 4.8 | 9.7 | 0.00 | 0.00 | 0.00 | 49 | 1009.9 |
| 20260905214333 | 32 | 16 | 4.8 | 9.7 | 0.00 | 0.00 | 0.00 | 48 | 1009.9 |
| 20260905214231 | 32 | 16 | 3.2 | 8.0 | 0.00 | 0.00 | 0.00 | 48 | 1010.0 |
| 20260905214130 | 32 | 16 | 4.8 | 8.0 | 0.00 | 0.00 | 0.00 | 47 | 1010.0 |
| 20260905214031 | 32 | 17 | 0.0 | 6.4 | 0.00 | 0.00 | 0.00 | 47 | 1010.0 |
| 20260905213933 | 32 | 14 | 0.0 | 9.7 | 0.00 | 0.00 | 0.00 | 47 | 1010.0 |
| 20260905213831 | 32 | 17 | 0.0 | 11.3 | 0.00 | 0.00 | 0.00 | 47 | 1010.0 |
| 20260905213730 | 32 | 17 | 0.0 | 11.3 | 0.00 | 0.00 | 0.00 | 48 | 1010.0 |
| 20260905213632 | 32 | 14 | 3.2 | 11.3 | 0.00 | 0.00 | 0.00 | 49 | 1010.0 |
| 20260905213551 | 32 | 14 | 1.6 | 11.3 | 0.00 | 0.00 | 0.00 | 47 | 1010.0 |
| 20260905213428 | 32 | 14 | 1.6 | 11.3 | 0.00 | 0.00 | 0.00 | 46 | 1010.0 |
| 20260905213327 | 32 | 16 | 3.2 | 11.3 | 0.00 | 0.00 | 0.00 | 46 | 1010.0 |
| 20260905213241 | 32 | 16 | 4.8 | 11.3 | 0.00 | 0.00 | 0.00 | 46 | 1010.0 |
| 20260905213153 | 32 | 16 | 8.0 | 11.3 | 0.00 | 0.00 | 0.00 | 46 | 1010.0 |
| 20260905213029 | 32 | 18 | 8.0 | 11.3 | 0.00 | 0.00 | 0.00 | 47 | 1010.0 |
| 20260905212928 | 32 | 16 | 4.8 | 11.3 | 0.00 | 0.00 | 0.00 | 47 | 1010.0 |
| 20260905212847 | 32 | 17 | 9.7 | 11.3 | 0.00 | 0.00 | 0.00 | 48 | 1010.0 |
| 20260905212725 | 32 | 20 | 4.8 | 11.3 | 0.00 | 0.00 | 0.00 | 48 | 1009.9 |
| 20260905212624 | 32 | 357 | 6.4 | 11.3 | 0.00 | 0.00 | 0.00 | 48 | 1009.9 |
| 20260905212542 | 32 | 10 | 3.2 | 11.3 | 0.00 | 0.00 | 0.00 | 48 | 1009.9 |
| 20260905212440 | 32 | 11 | 3.2 | 11.3 | 0.00 | 0.00 | 0.00 | 48 | 1009.9 |
| 20260905212341 | 32 | 328 | 3.2 | 11.3 | 0.00 | 0.00 | 0.00 | 49 | 1009.9 |
| 20260905212300 | 32 | 329 | 3.2 | 11.3 | 0.00 | 0.00 | 0.00 | 47 | 1009.9 |
| 20260905212139 | 32 | 330 | 0.0 | 11.3 | 0.00 | 0.00 | 0.00 | 47 | 1009.9 |
| 20260905212057 | 32 | 329 | 3.2 | 11.3 | 0.00 | 0.00 | 0.00 | 47 | 1009.9 |
| 20260905211935 | 32 | 330 | 4.8 | 11.3 | 0.00 | 0.00 | 0.00 | 47 | 1009.9 |
| 20260905211854 | 32 | 360 | 3.2 | 11.3 | 0.00 | 0.00 | 0.00 | 47 | 1009.9 |
| 20260905211753 | 32 | 3 | 8.0 | 11.3 | 0.00 | 0.00 | 0.00 | 46 | 1009.9 |
| 20260905211702 | 32 | 360 | 6.4 | 11.3 | 0.00 | 0.00 | 0.00 | 45 | 1009.9 |
| 20260905211540 | 32 | 25 | 3.2 | 4.8 | 0.00 | 0.00 | 0.00 | 46 | 1009.9 |
| 20260905211435 | 32 | 23 | 3.2 | 8.0 | 0.00 | 0.00 | 0.00 | 45 | 1009.9 |
| 20260905211336 | 32 | 25 | 3.2 | 9.7 | 0.00 | 0.00 | 0.00 | 47 | 1009.9 |
| 20260905211235 | 32 | 27 | 1.6 | 9.7 | 0.00 | 0.00 | 0.00 | 47 | 1009.9 |
| 20260905211134 | 32 | 27 | 1.6 | 9.7 | 0.00 | 0.00 | 0.00 | 48 | 1009.9 |
| 20260905211033 | 32 | 25 | 3.2 | 9.7 | 0.00 | 0.00 | 0.00 | 49 | 1009.9 |
| 20260905210931 | 32 | 25 | 3.2 | 9.7 | 0.00 | 0.00 | 0.00 | 46 | 1009.9 |
| 20260905210830 | 32 | 25 | 3.2 | 9.7 | 0.00 | 0.00 | 0.00 | 45 | 1009.9 |
| 20260905210728 | 32 | 24 | 3.2 | 9.7 | 0.00 | 0.00 | 0.00 | 44 | 1009.9 |
| 20260905210631 | 32 | 25 | 4.8 | 9.7 | 0.00 | 0.00 | 0.00 | 46 | 1009.9 |
| 20260905210529 | 32 | 24 | 6.4 | 9.7 | 0.00 | 0.00 | 0.00 | 47 | 1009.9 |
| 20260905210427 | 32 | 27 | 4.8 | 11.3 | 0.00 | 0.00 | 0.00 | 47 | 1009.9 |
| 20260905210326 | 32 | 27 | 4.8 | 11.3 | 0.00 | 0.00 | 0.00 | 47 | 1009.9 |
| 20260905210256 | 32 | 27 | 3.2 | 11.3 | 0.00 | 0.00 | 0.00 | 47 | 1009.9 |
| 20260905210146 | 32 | 27 | 3.2 | 11.3 | 0.00 | 0.00 | 0.00 | 47 | 1009.9 |
| 20260905210044 | 32 | 27 | 3.2 | 11.3 | 0.00 | 0.00 | 0.00 | 47 | 1009.9 |
| 20260905210003 | 32 | 27 | 6.4 | 11.3 | 0.00 | 0.00 | 0.00 | 47 | 1009.9 |
| 20260905205844 | 32 | 25 | 8.0 | 11.3 | 0.00 | 0.00 | 0.00 | 47 | 1009.9 |
| 20260905205741 | 32 | 30 | 8.0 | 11.3 | 0.00 | 0.00 | 0.00 | 48 | 1010.2 |
| 20260905205640 | 32 | 20 | 6.4 | 11.3 | 0.00 | 0.00 | 0.00 | 48 | 1010.2 |
| 20260905205539 | 32 | 18 | 6.4 | 11.3 | 0.00 | 0.00 | 0.00 | 47 | 1010.2 |
| 20260905205458 | 32 | 332 | 3.2 | 9.7 | 0.00 | 0.00 | 0.00 | 47 | 1010.2 |
| 20260905205336 | 32 | 330 | 0.0 | 9.7 | 0.00 | 0.00 | 0.00 | 47 | 1010.2 |
| 20260905205235 | 32 | 330 | 1.6 | 9.7 | 0.00 | 0.00 | 0.00 | 48 | 1010.2 |
| 20260905205154 | 32 | 329 | 6.4 | 9.7 | 0.00 | 0.00 | 0.00 | 49 | 1010.2 |
| 20260905205034 | 32 | 329 | 3.2 | 8.0 | 0.00 | 0.00 | 0.00 | 48 | 1010.2 |
| 20260905204933 | 32 | 329 | 3.2 | 8.0 | 0.00 | 0.00 | 0.00 | 48 | 1010.2 |
| 20260905204852 | 32 | 329 | 3.2 | 8.0 | 0.00 | 0.00 | 0.00 | 48 | 1010.2 |
| 20260905204801 | 32 | 325 | 0.0 | 11.3 | 0.00 | 0.00 | 0.00 | 48 | 1010.2 |
| 20260905204651 | 32 | 328 | 0.0 | 11.3 | 0.00 | 0.00 | 0.00 | 48 | 1010.2 |
| 20260905204528 | 32 | 329 | 3.2 | 12.9 | 0.00 | 0.00 | 0.00 | 48 | 1010.2 |
| 20260905204428 | 32 | 328 | 3.2 | 12.9 | 0.00 | 0.00 | 0.00 | 47 | 1010.2 |
| 20260905204326 | 32 | 329 | 4.8 | 12.9 | 0.00 | 0.00 | 0.00 | 47 | 1010.2 |
| 20260905204229 | 32 | 356 | 4.8 | 12.9 | 0.00 | 0.00 | 0.00 | 48 | 1010.3 |
| 20260905204127 | 32 | 356 | 3.2 | 12.9 | 0.00 | 0.00 | 0.00 | 47 | 1010.3 |
| 20260905204029 | 32 | 359 | 4.8 | 12.9 | 0.00 | 0.00 | 0.00 | 47 | 1010.3 |
| 20260905203928 | 32 | 360 | 6.4 | 16.1 | 0.00 | 0.00 | 0.00 | 48 | 1010.3 |
| 20260905203827 | 32 | 357 | 4.8 | 16.1 | 0.00 | 0.00 | 0.00 | 48 | 1010.3 |
| 20260905203724 | 32 | 337 | 9.7 | 16.1 | 0.00 | 0.00 | 0.00 | 48 | 1010.3 |
| 20260905203642 | 32 | 335 | 9.7 | 16.1 | 0.00 | 0.00 | 0.00 | 49 | 1010.3 |
| 20260905203540 | 32 | 329 | 9.7 | 16.1 | 0.00 | 0.00 | 0.00 | 48 | 1010.3 |
| 20260905203502 | 32 | 352 | 9.7 | 16.1 | 0.00 | 0.00 | 0.00 | 49 | 1010.3 |
| 20260905203338 | 32 | 10 | 8.0 | 16.1 | 0.00 | 0.00 | 0.00 | 48 | 1010.3 |
| 20260905203237 | 32 | 350 | 9.7 | 16.1 | 0.00 | 0.00 | 0.00 | 49 | 1010.3 |
| 20260905203207 | 32 | 305 | 9.7 | 16.1 | 0.00 | 0.00 | 0.00 | 49 | 1010.3 |
| 20260905203025 | 32 | 292 | 0.0 | 9.7 | 0.00 | 0.00 | 0.00 | 49 | 1010.3 |
| 20260905202943 | 32 | 291 | 1.6 | 9.7 | 0.00 | 0.00 | 0.00 | 49 | 1010.3 |
| 20260905202841 | 32 | 291 | 4.8 | 11.3 | 0.00 | 0.00 | 0.00 | 49 | 1010.3 |
| 20260905202722 | 32 | 3 | 1.6 | 12.9 | 0.00 | 0.00 | 0.00 | 49 | 1010.5 |
| 20260905202624 | 32 | 4 | 6.4 | 16.1 | 0.00 | 0.00 | 0.00 | 48 | 1010.5 |
| 20260905202542 | 32 | 4 | 6.4 | 16.1 | 0.00 | 0.00 | 0.00 | 48 | 1010.5 |
| 20260905202439 | 32 | 13 | 6.4 | 16.1 | 0.00 | 0.00 | 0.00 | 48 | 1010.5 |
| 20260905202341 | 32 | 11 | 8.0 | 16.1 | 0.00 | 0.00 | 0.00 | 48 | 1010.5 |
| 20260905202239 | 32 | 14 | 8.0 | 16.1 | 0.00 | 0.00 | 0.00 | 47 | 1010.5 |
| 20260905202137 | 32 | 8 | 6.4 | 16.1 | 0.00 | 0.00 | 0.00 | 49 | 1010.5 |
| 20260905202034 | 32 | 6 | 8.0 | 16.1 | 0.00 | 0.00 | 0.00 | 48 | 1010.5 |
| 20260905201936 | 32 | 360 | 11.3 | 16.1 | 0.00 | 0.00 | 0.00 | 49 | 1010.5 |
| 20260905201834 | 32 | 339 | 9.7 | 16.1 | 0.00 | 0.00 | 0.00 | 50 | 1010.5 |
| 20260905201742 | 32 | 349 | 3.2 | 12.9 | 0.00 | 0.00 | 0.00 | 49 | 1010.5 |
| 20260905201650 | 32 | 352 | 3.2 | 12.9 | 0.00 | 0.00 | 0.00 | 50 | 1010.5 |
| 20260905201548 | 32 | 316 | 6.4 | 12.9 | 0.00 | 0.00 | 0.00 | 50 | 1010.5 |
| 20260905201447 | 32 | 346 | 6.4 | 12.9 | 0.00 | 0.00 | 0.00 | 50 | 1010.5 |
| 20260905201404 | 32 | 333 | 4.8 | 12.9 | 0.00 | 0.00 | 0.00 | 49 | 1010.5 |
| 20260905201242 | 32 | 1 | 1.6 | 8.0 | 0.00 | 0.00 | 0.00 | 49 | 1010.8 |
| 20260905201124 | 32 | 1 | 3.2 | 8.0 | 0.00 | 0.00 | 0.00 | 49 | 1010.8 |
| 20260905201041 | 32 | 330 | 0.0 | 8.0 | 0.00 | 0.00 | 0.00 | 49 | 1010.8 |
| 20260905200940 | 32 | 329 | 0.0 | 8.0 | 0.00 | 0.00 | 0.00 | 49 | 1010.8 |
| 20260905200840 | 32 | 330 | 0.0 | 11.3 | 0.00 | 0.00 | 0.00 | 48 | 1010.8 |
| 20260905200738 | 32 | 328 | 3.2 | 14.5 | 0.00 | 0.00 | 0.00 | 49 | 1010.8 |
| 20260905200637 | 32 | 330 | 3.2 | 14.5 | 0.00 | 0.00 | 0.00 | 48 | 1010.8 |
| 20260905200535 | 32 | 329 | 0.0 | 14.5 | 0.00 | 0.00 | 0.00 | 48 | 1010.8 |
| 20260905200437 | 32 | 329 | 1.6 | 14.5 | 0.00 | 0.00 | 0.00 | 47 | 1010.8 |
| 20260905200338 | 32 | 328 | 3.2 | 14.5 | 0.00 | 0.00 | 0.00 | 49 | 1010.8 |
| 20260905200257 | 32 | 328 | 3.2 | 19.3 | 0.00 | 0.00 | 0.00 | 48 | 1010.8 |
| 20260905200228 | 32 | 328 | 4.8 | 19.3 | 0.00 | 0.00 | 0.00 | 47 | 1010.8 |
| 20260905200042 | 32 | 330 | 8.0 | 19.3 | 0.00 | 0.00 | 0.00 | 47 | 1010.8 |
| 20260905195941 | 32 | 330 | 11.3 | 19.3 | 0.00 | 0.00 | 0.00 | 48 | 1010.8 |
| 20260905195840 | 32 | 329 | 6.4 | 19.3 | 0.00 | 0.00 | 0.00 | 49 | 1010.8 |
| 20260905195739 | 32 | 325 | 4.8 | 19.3 | 0.00 | 0.00 | 0.00 | 49 | 1010.9 |
| 20260905195658 | 32 | 325 | 6.4 | 19.3 | 0.00 | 0.00 | 0.00 | 48 | 1010.9 |
| 20260905195603 | 32 | 313 | 8.0 | 19.3 | 0.00 | 0.00 | 0.00 | 48 | 1010.9 |
| 20260905195500 | 32 | 337 | 12.9 | 19.3 | 0.00 | 0.00 | 0.00 | 48 | 1010.9 |
| 20260905195400 | 32 | 329 | 12.9 | 19.3 | 0.00 | 0.00 | 0.00 | 50 | 1010.9 |
| 20260905195237 | 32 | 340 | 11.3 | 16.1 | 0.00 | 0.00 | 0.00 | 50 | 1010.9 |
| 20260905195135 | 32 | 312 | 6.4 | 16.1 | 0.00 | 0.00 | 0.00 | 49 | 1010.9 |
| 20260905195034 | 32 | 25 | 6.4 | 12.9 | 0.00 | 0.00 | 0.00 | 49 | 1010.9 |
| 20260905194953 | 32 | 360 | 1.6 | 11.3 | 0.00 | 0.00 | 0.00 | 48 | 1010.9 |
| 20260905194830 | 32 | 360 | 3.2 | 11.3 | 0.00 | 0.00 | 0.00 | 48 | 1010.9 |
| 20260905194728 | 32 | 360 | 4.8 | 11.3 | 0.00 | 0.00 | 0.00 | 50 | 1010.9 |
| 20260905194702 | 32 | 360 | 4.8 | 11.3 | 0.00 | 0.00 | 0.00 | 49 | 1010.9 |
| 20260905194540 | 32 | 326 | 4.8 | 11.3 | 0.00 | 0.00 | 0.00 | 48 | 1010.9 |
| 20260905194439 | 32 | 13 | 4.8 | 11.3 | 0.00 | 0.00 | 0.00 | 49 | 1010.9 |
| 20260905194337 | 32 | 4 | 4.8 | 11.3 | 0.00 | 0.00 | 0.00 | 49 | 1010.9 |
| 20260905194236 | 32 | 325 | 6.4 | 11.3 | 0.00 | 0.00 | 0.00 | 49 | 1011.0 |
| 20260905194134 | 32 | 360 | 6.4 | 9.7 | 0.00 | 0.00 | 0.00 | 49 | 1011.0 |
| 20260905194034 | 32 | 8 | 1.6 | 4.8 | 0.00 | 0.00 | 0.00 | 48 | 1011.0 |
| 20260905193937 | 32 | 8 | 1.6 | 4.8 | 0.00 | 0.00 | 0.00 | 49 | 1011.0 |
| 20260905193837 | 32 | 10 | 0.0 | 9.7 | 0.00 | 0.00 | 0.00 | 48 | 1011.0 |
| 20260905193735 | 32 | 14 | 0.0 | 11.3 | 0.00 | 0.00 | 0.00 | 47 | 1011.0 |
| 20260905193633 | 32 | 14 | 1.6 | 11.3 | 0.00 | 0.00 | 0.00 | 47 | 1011.0 |
| 20260905193532 | 32 | 13 | 0.0 | 11.3 | 0.00 | 0.00 | 0.00 | 47 | 1011.0 |
| 20260905193430 | 32 | 14 | 1.6 | 11.3 | 0.00 | 0.00 | 0.00 | 48 | 1011.0 |
| 20260905193333 | 32 | 11 | 1.6 | 11.3 | 0.00 | 0.00 | 0.00 | 47 | 1011.0 |
| 20260905193252 | 32 | 13 | 3.2 | 11.3 | 0.00 | 0.00 | 0.00 | 47 | 1011.0 |
| 20260905193224 | 32 | 16 | 1.6 | 11.3 | 0.00 | 0.00 | 0.00 | 49 | 1011.0 |
| 20260905193101 | 32 | 16 | 3.2 | 11.3 | 0.00 | 0.00 | 0.00 | 49 | 1011.0 |
| 20260905192938 | 32 | 17 | 4.8 | 11.3 | 0.00 | 0.00 | 0.00 | 50 | 1011.0 |
| 20260905192838 | 32 | 24 | 9.7 | 11.3 | 0.00 | 0.00 | 0.00 | 49 | 1011.0 |
| 20260905192758 | 32 | 359 | 9.7 | 11.3 | 0.00 | 0.00 | 0.00 | 48 | 1011.2 |
| 20260905192654 | 32 | 347 | 8.0 | 11.3 | 0.00 | 0.00 | 0.00 | 49 | 1011.2 |
| 20260905192532 | 32 | 319 | 3.2 | 12.9 | 0.00 | 0.00 | 0.00 | 48 | 1011.2 |
| 20260905192435 | 32 | 320 | 6.4 | 12.9 | 0.00 | 0.00 | 0.00 | 48 | 1011.2 |
| 20260905192334 | 32 | 333 | 8.0 | 12.9 | 0.00 | 0.00 | 0.00 | 48 | 1011.2 |
| 20260905192233 | 32 | 328 | 4.8 | 12.9 | 0.00 | 0.00 | 0.00 | 48 | 1011.2 |
| 20260905192151 | 32 | 322 | 1.6 | 12.9 | 0.00 | 0.00 | 0.00 | 49 | 1011.2 |
| 20260905192048 | 32 | 322 | 3.2 | 12.9 | 0.00 | 0.00 | 0.00 | 50 | 1011.2 |
| 20260905191926 | 32 | 320 | 8.0 | 12.9 | 0.00 | 0.00 | 0.00 | 48 | 1011.2 |
| 20260905191824 | 32 | 315 | 6.4 | 12.9 | 0.00 | 0.00 | 0.00 | 48 | 1011.2 |
| 20260905191735 | 32 | 336 | 11.3 | 12.9 | 0.00 | 0.00 | 0.00 | 48 | 1011.2 |
| 20260905191647 | 32 | 340 | 4.8 | 12.9 | 0.00 | 0.00 | 0.00 | 50 | 1011.2 |
| 20260905191525 | 32 | 346 | 8.0 | 12.9 | 0.00 | 0.00 | 0.00 | 49 | 1011.2 |
| 20260905191425 | 32 | 27 | 4.8 | 12.9 | 0.00 | 0.00 | 0.00 | 50 | 1011.2 |
| 20260905191343 | 32 | 30 | 4.8 | 12.9 | 0.00 | 0.00 | 0.00 | 50 | 1011.2 |
| 20260905191240 | 32 | 315 | 1.6 | 12.9 | 0.00 | 0.00 | 0.00 | 50 | 1011.5 |
| 20260905191139 | 32 | 318 | 4.8 | 12.9 | 0.00 | 0.00 | 0.00 | 50 | 1011.5 |
| 20260905191037 | 32 | 322 | 4.8 | 12.9 | 0.00 | 0.00 | 0.00 | 49 | 1011.5 |
| 20260905190956 | 32 | 322 | 9.7 | 12.9 | 0.00 | 0.00 | 0.00 | 49 | 1011.5 |
| 20260905190837 | 32 | 347 | 11.3 | 12.9 | 0.00 | 0.00 | 0.00 | 50 | 1011.5 |
| 20260905190737 | 32 | 336 | 11.3 | 12.9 | 0.00 | 0.00 | 0.00 | 53 | 1011.5 |
| 20260905190635 | 32 | 3 | 8.0 | 11.3 | 0.00 | 0.00 | 0.00 | 52 | 1011.5 |
| 20260905190533 | 32 | 16 | 6.4 | 11.3 | 0.00 | 0.00 | 0.00 | 51 | 1011.5 |
| 20260905190432 | 32 | 359 | 4.8 | 9.7 | 0.00 | 0.00 | 0.00 | 51 | 1011.5 |
| 20260905190349 | 32 | 359 | 0.0 | 9.7 | 0.00 | 0.00 | 0.00 | 51 | 1011.5 |
| 20260905190258 | 32 | 359 | 3.2 | 12.9 | 0.00 | 0.00 | 0.00 | 51 | 1011.5 |
| 20260905190148 | 32 | 359 | 0.0 | 12.9 | 0.00 | 0.00 | 0.00 | 51 | 1011.5 |
| 20260905190025 | 32 | 357 | 0.0 | 12.9 | 0.00 | 0.00 | 0.00 | 50 | 1011.5 |
| 20260905185947 | 32 | 357 | 3.2 | 12.9 | 0.00 | 0.00 | 0.00 | 49 | 1011.5 |
| 20260905185843 | 32 | 357 | 4.8 | 12.9 | 0.00 | 0.00 | 0.00 | 51 | 1011.5 |
| 20260905185802 | 32 | 359 | 3.2 | 12.9 | 0.00 | 0.00 | 0.00 | 50 | 1011.5 |
| 20260905185639 | 32 | 347 | 1.6 | 12.9 | 0.00 | 0.00 | 0.00 | 51 | 1011.5 |
| 20260905185537 | 32 | 347 | 3.2 | 12.9 | 0.00 | 0.00 | 0.00 | 51 | 1011.5 |
| 20260905185456 | 32 | 347 | 8.0 | 12.9 | 0.00 | 0.00 | 0.00 | 51 | 1011.5 |
| 20260905185333 | 32 | 356 | 8.0 | 12.9 | 0.00 | 0.00 | 0.00 | 50 | 1011.5 |
| 20260905185232 | 32 | 13 | 3.2 | 12.9 | 0.00 | 0.00 | 0.00 | 50 | 1011.5 |
| 20260905185134 | 32 | 11 | 3.2 | 12.9 | 0.00 | 0.00 | 0.00 | 49 | 1011.5 |
| 20260905185032 | 32 | 13 | 4.8 | 12.9 | 0.00 | 0.00 | 0.00 | 49 | 1011.5 |
| 20260905184930 | 32 | 14 | 8.0 | 12.9 | 0.00 | 0.00 | 0.00 | 51 | 1011.5 |
| 20260905184829 | 32 | 360 | 3.2 | 12.9 | 0.00 | 0.00 | 0.00 | 51 | 1011.5 |
| 20260905184748 | 32 | 346 | 3.2 | 12.9 | 0.00 | 0.00 | 0.00 | 50 | 1011.5 |
| 20260905184656 | 32 | 344 | 3.2 | 12.9 | 0.00 | 0.00 | 0.00 | 50 | 1011.5 |
| 20260905184534 | 32 | 344 | 3.2 | 12.9 | 0.00 | 0.00 | 0.00 | 50 | 1011.5 |
| 20260905184432 | 32 | 343 | 8.0 | 12.9 | 0.00 | 0.00 | 0.00 | 49 | 1011.5 |
| 20260905184336 | 32 | 329 | 6.4 | 12.9 | 0.00 | 0.00 | 0.00 | 51 | 1011.5 |
| 20260905184234 | 32 | 350 | 1.6 | 8.0 | 0.00 | 0.00 | 0.00 | 51 | 1011.7 |
| 20260905184133 | 32 | 350 | 1.6 | 8.0 | 0.00 | 0.00 | 0.00 | 50 | 1011.7 |
| 20260905184031 | 32 | 352 | 0.0 | 9.7 | 0.00 | 0.00 | 0.00 | 51 | 1011.7 |
| 20260905183929 | 32 | 352 | 0.0 | 9.7 | 0.00 | 0.00 | 0.00 | 51 | 1011.7 |
| 20260905183848 | 32 | 352 | 3.2 | 9.7 | 0.00 | 0.00 | 0.00 | 51 | 1011.7 |
| 20260905183746 | 32 | 350 | 0.0 | 12.9 | 0.00 | 0.00 | 0.00 | 50 | 1011.7 |
| 20260905183628 | 32 | 350 | 1.6 | 12.9 | 0.00 | 0.00 | 0.00 | 49 | 1011.7 |
| 20260905183525 | 32 | 354 | 3.2 | 12.9 | 0.00 | 0.00 | 0.00 | 50 | 1011.7 |
| 20260905183424 | 32 | 354 | 4.8 | 12.9 | 0.00 | 0.00 | 0.00 | 50 | 1011.7 |
| 20260905183343 | 32 | 354 | 3.2 | 17.7 | 0.00 | 0.00 | 0.00 | 50 | 1011.7 |
| 20260905183242 | 32 | 352 | 4.8 | 17.7 | 0.00 | 0.00 | 0.00 | 49 | 1011.7 |
| 20260905183213 | 32 | 352 | 6.4 | 17.7 | 0.00 | 0.00 | 0.00 | 50 | 1011.7 |
| 20260905183028 | 32 | 337 | 6.4 | 17.7 | 0.00 | 0.00 | 0.00 | 51 | 1011.7 |
| 20260905182947 | 32 | 343 | 9.7 | 17.7 | 0.00 | 0.00 | 0.00 | 50 | 1011.7 |
| 20260905182827 | 32 | 356 | 6.4 | 17.7 | 0.00 | 0.00 | 0.00 | 49 | 1011.7 |
| 20260905182727 | 32 | 28 | 0.0 | 17.7 | 0.00 | 0.00 | 0.00 | 49 | 1012.0 |
| 20260905182647 | 32 | 31 | 3.2 | 17.7 | 0.00 | 0.00 | 0.00 | 49 | 1012.0 |
| 20260905182543 | 32 | 30 | 9.7 | 17.7 | 0.00 | 0.00 | 0.00 | 49 | 1012.0 |
| 20260905182442 | 32 | 30 | 11.3 | 17.7 | 0.00 | 0.00 | 0.00 | 48 | 1012.0 |
| 20260905182341 | 32 | 325 | 9.7 | 14.5 | 0.00 | 0.00 | 0.00 | 52 | 1012.0 |
| 20260905182238 | 32 | 328 | 4.8 | 11.3 | 0.00 | 0.00 | 0.00 | 52 | 1012.0 |
| 20260905182137 | 32 | 353 | 4.8 | 11.3 | 0.00 | 0.00 | 0.00 | 52 | 1012.0 |
| 20260905182040 | 32 | 350 | 4.8 | 11.3 | 0.00 | 0.00 | 0.00 | 52 | 1012.0 |
| 20260905181939 | 32 | 349 | 1.6 | 11.3 | 0.00 | 0.00 | 0.00 | 52 | 1012.0 |
| 20260905181856 | 32 | 353 | 4.8 | 11.3 | 0.00 | 0.00 | 0.00 | 52 | 1012.0 |
| 20260905181815 | 32 | 1 | 6.4 | 11.3 | 0.00 | 0.00 | 0.00 | 51 | 1012.0 |
| 20260905181723 | 32 | 16 | 3.2 | 11.3 | 0.00 | 0.00 | 0.00 | 52 | 1012.0 |
| 20260905181540 | 32 | 322 | 0.0 | 9.7 | 0.00 | 0.00 | 0.00 | 52 | 1012.0 |
| 20260905181501 | 32 | 320 | 3.2 | 9.7 | 0.00 | 0.00 | 0.00 | 53 | 1012.0 |
| 20260905181338 | 32 | 322 | 3.2 | 9.7 | 0.00 | 0.00 | 0.00 | 53 | 1012.0 |
| 20260905181240 | 32 | 319 | 3.2 | 11.3 | 0.00 | 0.00 | 0.00 | 53 | 1012.0 |
| 20260905181159 | 32 | 320 | 3.2 | 11.3 | 0.00 | 0.00 | 0.00 | 53 | 1012.0 |
| 20260905181035 | 32 | 318 | 1.6 | 11.3 | 0.00 | 0.00 | 0.00 | 53 | 1012.0 |
| 20260905180933 | 32 | 319 | 1.6 | 12.9 | 0.00 | 0.00 | 0.00 | 52 | 1012.0 |
| 20260905180831 | 32 | 319 | 6.4 | 12.9 | 0.00 | 0.00 | 0.00 | 52 | 1012.0 |
| 20260905180749 | 32 | 356 | 6.4 | 12.9 | 0.00 | 0.00 | 0.00 | 53 | 1012.0 |
| 20260905180627 | 32 | 357 | 0.0 | 12.9 | 0.00 | 0.00 | 0.00 | 53 | 1012.0 |
| 20260905180526 | 32 | 359 | 1.6 | 12.9 | 0.00 | 0.00 | 0.00 | 52 | 1012.0 |
| 20260905180429 | 32 | 359 | 6.4 | 12.9 | 0.00 | 0.00 | 0.00 | 51 | 1012.0 |
| 20260905180327 | 32 | 17 | 4.8 | 12.9 | 0.00 | 0.00 | 0.00 | 51 | 1012.0 |
| 20260905180245 | 32 | 17 | 8.0 | 12.9 | 0.00 | 0.00 | 0.00 | 52 | 1012.0 |
| 20260905180155 | 32 | 16 | 9.7 | 12.9 | 0.00 | 0.00 | 0.00 | 52 | 1012.0 |
| 20260905180032 | 32 | 295 | 8.0 | 11.3 | 0.00 | 0.00 | 0.00 | 52 | 1012.0 |
| 20260905175932 | 32 | 356 | 6.4 | 11.3 | 0.00 | 0.00 | 0.00 | 54 | 1012.0 |
| 20260905175851 | 32 | 343 | 8.0 | 11.3 | 0.00 | 0.00 | 0.00 | 55 | 1012.0 |
| 20260905175731 | 32 | 359 | 6.4 | 11.3 | 0.00 | 0.00 | 0.00 | 55 | 1012.1 |
| 20260905175632 | 32 | 360 | 6.4 | 11.3 | 0.00 | 0.00 | 0.00 | 54 | 1012.1 |
| 20260905175531 | 32 | 32 | 3.2 | 8.0 | 0.00 | 0.00 | 0.00 | 54 | 1012.1 |
| 20260905175429 | 32 | 34 | 3.2 | 9.7 | 0.00 | 0.00 | 0.00 | 54 | 1012.1 |
| 20260905175327 | 32 | 32 | 1.6 | 9.7 | 0.00 | 0.00 | 0.00 | 55 | 1012.1 |
| 20260905175246 | 32 | 31 | 0.0 | 9.7 | 0.00 | 0.00 | 0.00 | 55 | 1012.1 |
| 20260905175204 | 32 | 32 | 0.0 | 11.3 | 0.00 | 0.00 | 0.00 | 55 | 1012.1 |
| 20260905175040 | 32 | 34 | 1.6 | 12.9 | 0.00 | 0.00 | 0.00 | 54 | 1012.1 |
| 20260905174940 | 32 | 31 | 3.2 | 12.9 | 0.00 | 0.00 | 0.00 | 54 | 1012.1 |
| 20260905174903 | 32 | 34 | 3.2 | 12.9 | 0.00 | 0.00 | 0.00 | 55 | 1012.1 |
| 20260905174740 | 32 | 32 | 3.2 | 12.9 | 0.00 | 0.00 | 0.00 | 55 | 1012.1 |
| 20260905174711 | 32 | 38 | 3.2 | 12.9 | 0.00 | 0.00 | 0.00 | 55 | 1012.1 |
| 20260905174528 | 32 | 37 | 6.4 | 12.9 | 0.00 | 0.00 | 0.00 | 56 | 1012.1 |
| 20260905174427 | 32 | 40 | 4.8 | 12.9 | 0.00 | 0.00 | 0.00 | 55 | 1012.1 |
| 20260905174326 | 32 | 42 | 8.0 | 12.9 | 0.00 | 0.00 | 0.00 | 55 | 1012.1 |
| 20260905174243 | 32 | 44 | 9.7 | 12.9 | 0.00 | 0.00 | 0.00 | 55 | 1012.4 |
| 20260905174126 | 32 | 38 | 9.7 | 12.9 | 0.00 | 0.00 | 0.00 | 54 | 1012.4 |
| 20260905174025 | 32 | 309 | 1.6 | 9.7 | 0.00 | 0.00 | 0.00 | 56 | 1012.4 |
| 20260905173943 | 32 | 291 | 0.0 | 9.7 | 0.00 | 0.00 | 0.00 | 56 | 1012.4 |
| 20260905173841 | 32 | 291 | 1.6 | 9.7 | 0.00 | 0.00 | 0.00 | 56 | 1012.4 |
| 20260905173759 | 32 | 291 | 3.2 | 9.7 | 0.00 | 0.00 | 0.00 | 55 | 1012.4 |
| 20260905173638 | 32 | 294 | 1.6 | 9.7 | 0.00 | 0.00 | 0.00 | 56 | 1012.4 |
| 20260905173556 | 32 | 295 | 1.6 | 9.7 | 0.00 | 0.00 | 0.00 | 56 | 1012.4 |
| 20260905173432 | 32 | 287 | 1.6 | 9.7 | 0.00 | 0.00 | 0.00 | 56 | 1012.4 |
| 20260905173330 | 31 | 288 | 6.4 | 9.7 | 0.00 | 0.00 | 0.00 | 55 | 1012.4 |
| 20260905173232 | 31 | 315 | 4.8 | 11.3 | 0.00 | 0.00 | 0.00 | 56 | 1012.4 |
| 20260905173203 | 31 | 316 | 3.2 | 11.3 | 0.00 | 0.00 | 0.00 | 56 | 1012.4 |
| 20260905173039 | 31 | 316 | 3.2 | 11.3 | 0.00 | 0.00 | 0.00 | 56 | 1012.4 |
| 20260905172938 | 31 | 319 | 3.2 | 11.3 | 0.00 | 0.00 | 0.00 | 56 | 1012.4 |
| 20260905172837 | 31 | 318 | 1.6 | 11.3 | 0.00 | 0.00 | 0.00 | 56 | 1012.4 |
| 20260905172739 | 31 | 320 | 3.2 | 11.3 | 0.00 | 0.00 | 0.00 | 55 | 1012.6 |
| 20260905172657 | 31 | 323 | 3.2 | 16.1 | 0.00 | 0.00 | 0.00 | 54 | 1012.6 |
| 20260905172535 | 31 | 322 | 3.2 | 16.1 | 0.00 | 0.00 | 0.00 | 56 | 1012.6 |
| 20260905172459 | 31 | 322 | 3.2 | 16.1 | 0.00 | 0.00 | 0.00 | 55 | 1012.6 |
| 20260905172336 | 31 | 319 | 8.0 | 16.1 | 0.00 | 0.00 | 0.00 | 55 | 1012.6 |
| 20260905172235 | 31 | 329 | 1.6 | 16.1 | 0.00 | 0.00 | 0.00 | 56 | 1012.6 |
| 20260905172134 | 31 | 329 | 0.0 | 16.1 | 0.00 | 0.00 | 0.00 | 56 | 1012.6 |
| 20260905172031 | 31 | 329 | 3.2 | 16.1 | 0.00 | 0.00 | 0.00 | 56 | 1012.6 |
| 20260905171928 | 31 | 328 | 4.8 | 16.1 | 0.00 | 0.00 | 0.00 | 56 | 1012.6 |
| 20260905171847 | 31 | 325 | 11.3 | 16.1 | 0.00 | 0.00 | 0.00 | 55 | 1012.6 |
| 20260905171736 | 31 | 294 | 6.4 | 11.3 | 0.00 | 0.00 | 0.00 | 56 | 1012.6 |
| 20260905171647 | 31 | 302 | 1.6 | 11.3 | 0.00 | 0.00 | 0.00 | 56 | 1012.6 |
| 20260905171545 | 31 | 344 | 1.6 | 11.3 | 0.00 | 0.00 | 0.00 | 55 | 1012.6 |
| 20260905171442 | 31 | 342 | 3.2 | 11.3 | 0.00 | 0.00 | 0.00 | 55 | 1012.6 |
| 20260905171341 | 31 | 343 | 1.6 | 11.3 | 0.00 | 0.00 | 0.00 | 55 | 1012.6 |
| 20260905171239 | 31 | 343 | 4.8 | 11.3 | 0.00 | 0.00 | 0.00 | 56 | 1012.6 |
| 20260905171138 | 31 | 344 | 8.0 | 11.3 | 0.00 | 0.00 | 0.00 | 57 | 1012.6 |
| 20260905171057 | 31 | 359 | 8.0 | 11.3 | 0.00 | 0.00 | 0.00 | 57 | 1012.6 |
| 20260905170934 | 31 | 340 | 3.2 | 11.3 | 0.00 | 0.00 | 0.00 | 56 | 1012.6 |
| 20260905170852 | 31 | 340 | 3.2 | 11.3 | 0.00 | 0.00 | 0.00 | 56 | 1012.6 |
| 20260905170734 | 31 | 330 | 0.0 | 11.3 | 0.00 | 0.00 | 0.00 | 56 | 1012.6 |
| 20260905170633 | 31 | 330 | 4.8 | 11.3 | 0.00 | 0.00 | 0.00 | 56 | 1012.6 |
| 20260905170531 | 31 | 330 | 6.4 | 11.3 | 0.00 | 0.00 | 0.00 | 57 | 1012.6 |
| 20260905170449 | 31 | 330 | 3.2 | 11.3 | 0.00 | 0.00 | 0.00 | 57 | 1012.6 |
| 20260905170326 | 31 | 325 | 1.6 | 11.3 | 0.00 | 0.00 | 0.00 | 57 | 1012.6 |
| 20260905170237 | 31 | 325 | 4.8 | 11.3 | 0.00 | 0.00 | 0.00 | 56 | 1012.6 |
| 20260905170146 | 31 | 332 | 0.0 | 11.3 | 0.00 | 0.00 | 0.00 | 56 | 1012.6 |
| 20260905170027 | 31 | 328 | 1.6 | 11.3 | 0.00 | 0.00 | 0.00 | 56 | 1012.6 |
| 20260905165945 | 31 | 332 | 9.7 | 11.3 | 0.00 | 0.00 | 0.00 | 55 | 1012.6 |
| 20260905165841 | 31 | 326 | 9.7 | 11.3 | 0.00 | 0.00 | 0.00 | 56 | 1012.6 |
| 20260905165800 | 31 | 302 | 4.8 | 11.3 | 0.00 | 0.00 | 0.00 | 57 | 1012.8 |
| 20260905165638 | 31 | 292 | 1.6 | 11.3 | 0.00 | 0.00 | 0.00 | 58 | 1012.8 |
| 20260905165536 | 31 | 280 | 4.8 | 11.3 | 0.00 | 0.00 | 0.00 | 58 | 1012.8 |
| 20260905165435 | 31 | 292 | 3.2 | 11.3 | 0.00 | 0.00 | 0.00 | 57 | 1012.8 |
| 20260905165334 | 31 | 292 | 4.8 | 11.3 | 0.00 | 0.00 | 0.00 | 58 | 1012.8 |
| 20260905165237 | 31 | 284 | 3.2 | 9.7 | 0.00 | 0.00 | 0.00 | 57 | 1012.8 |
| 20260905165136 | 31 | 328 | 3.2 | 11.3 | 0.00 | 0.00 | 0.00 | 58 | 1012.8 |
| 20260905165035 | 31 | 328 | 3.2 | 11.3 | 0.00 | 0.00 | 0.00 | 58 | 1012.8 |
| 20260905164933 | 31 | 329 | 1.6 | 11.3 | 0.00 | 0.00 | 0.00 | 57 | 1012.8 |
| 20260905164833 | 31 | 330 | 4.8 | 11.3 | 0.00 | 0.00 | 0.00 | 57 | 1012.8 |
| 20260905164743 | 31 | 292 | 1.6 | 11.3 | 0.00 | 0.00 | 0.00 | 57 | 1012.8 |
| 20260905164652 | 31 | 295 | 3.2 | 11.3 | 0.00 | 0.00 | 0.00 | 58 | 1012.8 |
| 20260905164537 | 31 | 295 | 3.2 | 11.3 | 0.00 | 0.00 | 0.00 | 57 | 1012.8 |
| 20260905164435 | 31 | 318 | 4.8 | 11.3 | 0.00 | 0.00 | 0.00 | 57 | 1012.8 |
| 20260905164334 | 31 | 328 | 6.4 | 11.3 | 0.00 | 0.00 | 0.00 | 60 | 1012.8 |
| 20260905164234 | 31 | 329 | 3.2 | 9.7 | 0.00 | 0.00 | 0.00 | 59 | 1013.1 |
| 20260905164132 | 31 | 313 | 1.6 | 9.7 | 0.00 | 0.00 | 0.00 | 59 | 1013.1 |
| 20260905164051 | 31 | 313 | 3.2 | 9.7 | 0.00 | 0.00 | 0.00 | 60 | 1013.1 |
| 20260905163927 | 31 | 312 | 1.6 | 9.7 | 0.00 | 0.00 | 0.00 | 59 | 1013.1 |
| 20260905163831 | 30 | 308 | 0.0 | 9.7 | 0.00 | 0.00 | 0.00 | 59 | 1013.1 |
| 20260905163729 | 30 | 311 | 0.0 | 11.3 | 0.00 | 0.00 | 0.00 | 60 | 1013.1 |
| 20260905163630 | 30 | 311 | 0.0 | 11.3 | 0.00 | 0.00 | 0.00 | 61 | 1013.1 |
| 20260905163528 | 30 | 311 | 3.2 | 11.3 | 0.00 | 0.00 | 0.00 | 61 | 1013.1 |
| 20260905163429 | 30 | 308 | 4.8 | 11.3 | 0.00 | 0.00 | 0.00 | 60 | 1013.1 |
| 20260905163325 | 30 | 309 | 8.0 | 11.3 | 0.00 | 0.00 | 0.00 | 61 | 1013.1 |
| 20260905163227 | 30 | 309 | 6.4 | 11.3 | 0.00 | 0.00 | 0.00 | 60 | 1013.1 |
| 20260905163158 | 30 | 320 | 4.8 | 11.3 | 0.00 | 0.00 | 0.00 | 60 | 1013.1 |
| 20260905163039 | 30 | 337 | 3.2 | 11.3 | 0.00 | 0.00 | 0.00 | 61 | 1013.1 |
| 20260905162939 | 30 | 292 | 4.8 | 11.3 | 0.00 | 0.00 | 0.00 | 61 | 1013.1 |
| 20260905162837 | 30 | 325 | 4.8 | 11.3 | 0.00 | 0.00 | 0.00 | 61 | 1013.1 |
| 20260905162735 | 30 | 320 | 3.2 | 9.7 | 0.00 | 0.00 | 0.00 | 61 | 1013.2 |
| 20260905162635 | 30 | 318 | 4.8 | 9.7 | 0.00 | 0.00 | 0.00 | 61 | 1013.2 |
| 20260905162533 | 30 | 319 | 1.6 | 9.7 | 0.00 | 0.00 | 0.00 | 61 | 1013.2 |
| 20260905162431 | 30 | 318 | 4.8 | 9.7 | 0.00 | 0.00 | 0.00 | 61 | 1013.2 |
| 20260905162334 | 30 | 319 | 6.4 | 9.7 | 0.00 | 0.00 | 0.00 | 61 | 1013.2 |
| 20260905162252 | 30 | 313 | 3.2 | 9.7 | 0.00 | 0.00 | 0.00 | 61 | 1013.2 |
| 20260905162155 | 30 | 335 | 3.2 | 9.7 | 0.00 | 0.00 | 0.00 | 60 | 1013.2 |
| 20260905162034 | 30 | 319 | 3.2 | 9.7 | 0.00 | 0.00 | 0.00 | 60 | 1013.2 |
| 20260905161936 | 30 | 346 | 6.4 | 9.7 | 0.00 | 0.00 | 0.00 | 62 | 1013.2 |
| 20260905161833 | 30 | 318 | 3.2 | 9.7 | 0.00 | 0.00 | 0.00 | 62 | 1013.2 |
| 20260905161752 | 30 | 313 | 1.6 | 9.7 | 0.00 | 0.00 | 0.00 | 62 | 1013.2 |
| 20260905161721 | 30 | 315 | 3.2 | 9.7 | 0.00 | 0.00 | 0.00 | 62 | 1013.2 |
| 20260905161542 | 30 | 312 | 1.6 | 9.7 | 0.00 | 0.00 | 0.00 | 62 | 1013.2 |
| 20260905161501 | 30 | 313 | 0.0 | 9.7 | 0.00 | 0.00 | 0.00 | 62 | 1013.2 |
| 20260905161338 | 30 | 311 | 1.6 | 9.7 | 0.00 | 0.00 | 0.00 | 62 | 1013.2 |
| 20260905161237 | 30 | 312 | 4.8 | 9.7 | 0.00 | 0.00 | 0.00 | 62 | 1013.4 |
| 20260905161135 | 30 | 313 | 3.2 | 9.7 | 0.00 | 0.00 | 0.00 | 61 | 1013.4 |
| 20260905161034 | 30 | 312 | 6.4 | 9.7 | 0.00 | 0.00 | 0.00 | 62 | 1013.4 |
| 20260905160931 | 30 | 313 | 4.8 | 9.7 | 0.00 | 0.00 | 0.00 | 63 | 1013.4 |
| 20260905160851 | 30 | 312 | 3.2 | 9.7 | 0.00 | 0.00 | 0.00 | 63 | 1013.4 |
| 20260905160732 | 30 | 311 | 6.4 | 9.7 | 0.00 | 0.00 | 0.00 | 62 | 1013.4 |
| 20260905160631 | 30 | 312 | 8.0 | 9.7 | 0.00 | 0.00 | 0.00 | 63 | 1013.4 |
| 20260905160531 | 30 | 312 | 6.4 | 9.7 | 0.00 | 0.00 | 0.00 | 62 | 1013.4 |
| 20260905160429 | 30 | 315 | 6.4 | 9.7 | 0.00 | 0.00 | 0.00 | 62 | 1013.4 |
| 20260905160348 | 30 | 316 | 3.2 | 4.8 | 0.00 | 0.00 | 0.00 | 62 | 1013.4 |
| 20260905160246 | 30 | 316 | 1.6 | 4.8 | 0.00 | 0.00 | 0.00 | 62 | 1013.4 |
| 20260905160216 | 30 | 318 | 1.6 | 4.8 | 0.00 | 0.00 | 0.00 | 62 | 1013.4 |
| 20260905160031 | 30 | 319 | 3.2 | 8.0 | 0.00 | 0.00 | 0.00 | 63 | 1013.4 |
| 20260905155934 | 30 | 318 | 0.0 | 8.0 | 0.00 | 0.00 | 0.00 | 63 | 1013.4 |
| 20260905155834 | 30 | 318 | 1.6 | 8.0 | 0.00 | 0.00 | 0.00 | 63 | 1013.4 |
| 20260905155752 | 30 | 316 | 3.2 | 8.0 | 0.00 | 0.00 | 0.00 | 63 | 1013.4 |
| 20260905155630 | 30 | 318 | 1.6 | 8.0 | 0.00 | 0.00 | 0.00 | 64 | 1013.4 |
| 20260905155528 | 30 | 318 | 3.2 | 8.0 | 0.00 | 0.00 | 0.00 | 63 | 1013.4 |
| 20260905155427 | 30 | 318 | 3.2 | 8.0 | 0.00 | 0.00 | 0.00 | 64 | 1013.4 |
| 20260905155328 | 29 | 315 | 3.2 | 8.0 | 0.00 | 0.00 | 0.00 | 64 | 1013.4 |
| 20260905155230 | 29 | 318 | 6.4 | 8.0 | 0.00 | 0.00 | 0.00 | 65 | 1013.4 |
| 20260905155127 | 29 | 318 | 3.2 | 8.0 | 0.00 | 0.00 | 0.00 | 66 | 1013.4 |
| 20260905155027 | 29 | 318 | 1.6 | 8.0 | 0.00 | 0.00 | 0.00 | 65 | 1013.4 |
| 20260905154926 | 29 | 316 | 3.2 | 8.0 | 0.00 | 0.00 | 0.00 | 66 | 1013.4 |
| 20260905154826 | 29 | 316 | 1.6 | 9.7 | 0.00 | 0.00 | 0.00 | 65 | 1013.4 |
| 20260905154726 | 29 | 318 | 0.0 | 9.7 | 0.00 | 0.00 | 0.00 | 65 | 1013.4 |
| 20260905154657 | 29 | 318 | 0.0 | 9.7 | 0.00 | 0.00 | 0.00 | 65 | 1013.4 |
| 20260905154537 | 29 | 319 | 0.0 | 11.3 | 0.00 | 0.00 | 0.00 | 65 | 1013.4 |
| 20260905154455 | 29 | 318 | 1.6 | 11.3 | 0.00 | 0.00 | 0.00 | 66 | 1013.4 |
| 20260905154333 | 29 | 318 | 3.2 | 11.3 | 0.00 | 0.00 | 0.00 | 67 | 1013.4 |
| 20260905154233 | 29 | 318 | 6.4 | 11.3 | 0.00 | 0.00 | 0.00 | 68 | 1013.4 |
| 20260905154131 | 29 | 316 | 4.8 | 11.3 | 0.00 | 0.00 | 0.00 | 68 | 1013.4 |
| 20260905154029 | 29 | 318 | 6.4 | 11.3 | 0.00 | 0.00 | 0.00 | 66 | 1013.4 |
| 20260905153928 | 29 | 318 | 6.4 | 11.3 | 0.00 | 0.00 | 0.00 | 66 | 1013.4 |
| 20260905153827 | 29 | 319 | 8.0 | 11.3 | 0.00 | 0.00 | 0.00 | 66 | 1013.4 |
| 20260905153728 | 29 | 320 | 8.0 | 11.3 | 0.00 | 0.00 | 0.00 | 68 | 1013.4 |
| 20260905153627 | 29 | 320 | 4.8 | 9.7 | 0.00 | 0.00 | 0.00 | 67 | 1013.4 |
| 20260905153527 | 29 | 320 | 4.8 | 9.7 | 0.00 | 0.00 | 0.00 | 67 | 1013.4 |
| 20260905153426 | 29 | 322 | 4.8 | 9.7 | 0.00 | 0.00 | 0.00 | 67 | 1013.4 |
| 20260905153344 | 29 | 319 | 1.6 | 8.0 | 0.00 | 0.00 | 0.00 | 68 | 1013.4 |
| 20260905153242 | 29 | 320 | 4.8 | 8.0 | 0.00 | 0.00 | 0.00 | 68 | 1013.4 |
| 20260905153213 | 29 | 319 | 4.8 | 8.0 | 0.00 | 0.00 | 0.00 | 69 | 1013.4 |
| 20260905153049 | 29 | 333 | 3.2 | 8.0 | 0.00 | 0.00 | 0.00 | 68 | 1013.4 |
| 20260905152929 | 29 | 333 | 1.6 | 8.0 | 0.00 | 0.00 | 0.00 | 68 | 1013.4 |
| 20260905152827 | 29 | 335 | 1.6 | 8.0 | 0.00 | 0.00 | 0.00 | 68 | 1013.4 |
| 20260905152747 | 29 | 335 | 1.6 | 8.0 | 0.00 | 0.00 | 0.00 | 69 | 1013.4 |
| 20260905152649 | 28 | 333 | 3.2 | 8.0 | 0.00 | 0.00 | 0.00 | 69 | 1013.4 |
| 20260905152546 | 28 | 333 | 1.6 | 8.0 | 0.00 | 0.00 | 0.00 | 69 | 1013.4 |
| 20260905152446 | 28 | 333 | 3.2 | 8.0 | 0.00 | 0.00 | 0.00 | 69 | 1013.4 |
| 20260905152344 | 28 | 333 | 4.8 | 8.0 | 0.00 | 0.00 | 0.00 | 68 | 1013.4 |
| 20260905152301 | 28 | 335 | 4.8 | 8.0 | 0.00 | 0.00 | 0.00 | 68 | 1013.4 |
| 20260905152139 | 28 | 336 | 4.8 | 8.0 | 0.00 | 0.00 | 0.00 | 69 | 1013.4 |
| 20260905152057 | 28 | 336 | 1.6 | 6.4 | 0.00 | 0.00 | 0.00 | 68 | 1013.4 |
| 20260905151954 | 28 | 337 | 1.6 | 6.4 | 0.00 | 0.00 | 0.00 | 68 | 1013.4 |
| 20260905151836 | 28 | 340 | 0.0 | 6.4 | 0.00 | 0.00 | 0.00 | 68 | 1013.4 |
| 20260905151735 | 28 | 339 | 0.0 | 6.4 | 0.00 | 0.00 | 0.00 | 69 | 1013.4 |
| 20260905151704 | 28 | 339 | 0.0 | 6.4 | 0.00 | 0.00 | 0.00 | 69 | 1013.4 |
| 20260905151541 | 28 | 339 | 0.0 | 6.4 | 0.00 | 0.00 | 0.00 | 69 | 1013.4 |
| 20260905151439 | 28 | 337 | 0.0 | 6.4 | 0.00 | 0.00 | 0.00 | 69 | 1013.4 |
| 20260905151337 | 28 | 340 | 1.6 | 6.4 | 0.00 | 0.00 | 0.00 | 69 | 1013.4 |
| 20260905151237 | 28 | 339 | 0.0 | 6.4 | 0.00 | 0.00 | 0.00 | 70 | 1012.4 |
| 20260905151140 | 28 | 340 | 0.0 | 3.2 | 0.00 | 0.00 | 0.00 | 70 | 1012.4 |
| 20260905151039 | 28 | 340 | 0.0 | 3.2 | 0.00 | 0.00 | 0.00 | 70 | 1012.4 |
| 20260905150937 | 28 | 340 | 0.0 | 3.2 | 0.00 | 0.00 | 0.00 | 70 | 1012.4 |
| 20260905150836 | 28 | 337 | 0.0 | 3.2 | 0.00 | 0.00 | 0.00 | 71 | 1012.4 |
| 20260905150734 | 28 | 340 | 0.0 | 3.2 | 0.00 | 0.00 | 0.00 | 71 | 1012.4 |
| 20260905150633 | 28 | 340 | 0.0 | 3.2 | 0.00 | 0.00 | 0.00 | 71 | 1012.4 |
| 20260905150535 | 28 | 339 | 0.0 | 3.2 | 0.00 | 0.00 | 0.00 | 71 | 1012.4 |
| 20260905150433 | 28 | 342 | 0.0 | 3.2 | 0.00 | 0.00 | 0.00 | 71 | 1012.4 |
| 20260905150332 | 28 | 342 | 1.6 | 3.2 | 0.00 | 0.00 | 0.00 | 71 | 1012.4 |
| 20260905150301 | 28 | 340 | 3.2 | 3.2 | 0.00 | 0.00 | 0.00 | 71 | 1012.4 |
| 20260905150151 | 28 | 337 | 3.2 | 3.2 | 0.00 | 0.00 | 0.00 | 71 | 1012.4 |
| 20260905150030 | 28 | 339 | 0.0 | 3.2 | 0.00 | 0.00 | 0.00 | 71 | 1012.4 |
| 20260905145927 | 28 | 336 | 0.0 | 1.6 | 0.00 | 0.00 | 0.00 | 71 | 1012.4 |
| 20260905145846 | 28 | 340 | 0.0 | 1.6 | 0.00 | 0.00 | 0.00 | 71 | 1012.4 |
| 20260905145804 | 28 | 335 | 0.0 | 1.6 | 0.00 | 0.00 | 0.00 | 71 | 1012.5 |
| 20260905145707 | 28 | 340 | 0.0 | 1.6 | 0.00 | 0.00 | 0.00 | 71 | 1012.5 |
| 20260905145605 | 28 | 340 | 0.0 | 3.2 | 0.00 | 0.00 | 0.00 | 71 | 1012.5 |
| 20260905145442 | 28 | 340 | 0.0 | 3.2 | 0.00 | 0.00 | 0.00 | 71 | 1012.5 |
| 20260905145341 | 28 | 340 | 0.0 | 3.2 | 0.00 | 0.00 | 0.00 | 71 | 1012.5 |
| 20260905145258 | 27 | 340 | 0.0 | 3.2 | 0.00 | 0.00 | 0.00 | 71 | 1012.5 |
| 20260905145137 | 27 | 340 | 0.0 | 3.2 | 0.00 | 0.00 | 0.00 | 71 | 1012.5 |
| 20260905145034 | 27 | 340 | 0.0 | 3.2 | 0.00 | 0.00 | 0.00 | 71 | 1012.5 |
| 20260905144933 | 27 | 337 | 0.0 | 3.2 | 0.00 | 0.00 | 0.00 | 72 | 1012.5 |
| 20260905144856 | 27 | 340 | 0.0 | 4.8 | 0.00 | 0.00 | 0.00 | 72 | 1012.5 |
| 20260905144703 | 27 | 340 | 0.0 | 4.8 | 0.00 | 0.00 | 0.00 | 71 | 1012.5 |
| 20260905144541 | 27 | 340 | 0.0 | 4.8 | 0.00 | 0.00 | 0.00 | 71 | 1012.5 |
| 20260905144440 | 27 | 340 | 0.0 | 4.8 | 0.00 | 0.00 | 0.00 | 70 | 1012.5 |
| 20260905144339 | 27 | 340 | 0.0 | 4.8 | 0.00 | 0.00 | 0.00 | 70 | 1012.5 |
| 20260905144237 | 27 | 339 | 0.0 | 4.8 | 0.00 | 0.00 | 0.00 | 70 | 1012.8 |
| 20260905144140 | 27 | 340 | 1.6 | 6.4 | 0.00 | 0.00 | 0.00 | 70 | 1012.8 |
| 20260905144059 | 27 | 336 | 3.2 | 6.4 | 0.00 | 0.00 | 0.00 | 70 | 1012.8 |
| 20260905143936 | 27 | 340 | 1.6 | 6.4 | 0.00 | 0.00 | 0.00 | 69 | 1012.8 |
| 20260905143834 | 27 | 339 | 1.6 | 6.4 | 0.00 | 0.00 | 0.00 | 69 | 1012.8 |
| 20260905143733 | 27 | 340 | 3.2 | 8.0 | 0.00 | 0.00 | 0.00 | 70 | 1012.8 |
| 20260905143632 | 27 | 336 | 3.2 | 8.0 | 0.00 | 0.00 | 0.00 | 71 | 1012.8 |
| 20260905143531 | 27 | 340 | 1.6 | 8.0 | 0.00 | 0.00 | 0.00 | 71 | 1012.8 |
| 20260905143450 | 27 | 342 | 3.2 | 8.0 | 0.00 | 0.00 | 0.00 | 72 | 1012.8 |
| 20260905143335 | 27 | 340 | 3.2 | 8.0 | 0.00 | 0.00 | 0.00 | 73 | 1012.8 |
| 20260905143233 | 27 | 340 | 1.6 | 8.0 | 0.00 | 0.00 | 0.00 | 73 | 1012.8 |
| 20260905143205 | 27 | 342 | 1.6 | 8.0 | 0.00 | 0.00 | 0.00 | 72 | 1012.8 |
| 20260905143041 | 27 | 340 | 1.6 | 8.0 | 0.00 | 0.00 | 0.00 | 72 | 1012.8 |
| 20260905142940 | 27 | 339 | 4.8 | 8.0 | 0.00 | 0.00 | 0.00 | 72 | 1012.8 |
| 20260905142838 | 27 | 336 | 3.2 | 8.0 | 0.00 | 0.00 | 0.00 | 71 | 1012.8 |
| 20260905142737 | 27 | 337 | 3.2 | 8.0 | 0.00 | 0.00 | 0.00 | 71 | 1012.9 |
| 20260905142639 | 27 | 337 | 1.6 | 8.0 | 0.00 | 0.00 | 0.00 | 70 | 1012.9 |
| 20260905142537 | 27 | 337 | 3.2 | 8.0 | 0.00 | 0.00 | 0.00 | 71 | 1012.9 |
| 20260905142437 | 27 | 336 | 1.6 | 8.0 | 0.00 | 0.00 | 0.00 | 72 | 1012.9 |
| 20260905142334 | 27 | 339 | 1.6 | 8.0 | 0.00 | 0.00 | 0.00 | 71 | 1012.9 |
| 20260905142234 | 27 | 339 | 3.2 | 8.0 | 0.00 | 0.00 | 0.00 | 71 | 1012.9 |
| 20260905142133 | 27 | 339 | 3.2 | 8.0 | 0.00 | 0.00 | 0.00 | 72 | 1012.9 |
| 20260905142032 | 27 | 342 | 0.0 | 4.8 | 0.00 | 0.00 | 0.00 | 73 | 1012.9 |
| 20260905141954 | 27 | 340 | 3.2 | 4.8 | 0.00 | 0.00 | 0.00 | 74 | 1012.9 |
| 20260905141832 | 27 | 343 | 3.2 | 4.8 | 0.00 | 0.00 | 0.00 | 74 | 1012.9 |
| 20260905141732 | 27 | 343 | 1.6 | 4.8 | 0.00 | 0.00 | 0.00 | 74 | 1012.9 |
| 20260905141700 | 27 | 344 | 1.6 | 4.8 | 0.00 | 0.00 | 0.00 | 74 | 1012.9 |
| 20260905141538 | 27 | 346 | 1.6 | 4.8 | 0.00 | 0.00 | 0.00 | 74 | 1012.9 |
| 20260905141437 | 27 | 344 | 0.0 | 4.8 | 0.00 | 0.00 | 0.00 | 73 | 1012.9 |
| 20260905141336 | 27 | 346 | 1.6 | 4.8 | 0.00 | 0.00 | 0.00 | 71 | 1012.9 |
| 20260905141256 | 27 | 347 | 0.0 | 4.8 | 0.00 | 0.00 | 0.00 | 71 | 1013.0 |
| 20260905141137 | 27 | 344 | 1.6 | 4.8 | 0.00 | 0.00 | 0.00 | 70 | 1013.0 |
| 20260905141035 | 27 | 346 | 3.2 | 4.8 | 0.00 | 0.00 | 0.00 | 71 | 1013.0 |
| 20260905140933 | 27 | 346 | 1.6 | 4.8 | 0.00 | 0.00 | 0.00 | 71 | 1013.0 |
| 20260905140834 | 27 | 347 | 1.6 | 4.8 | 0.00 | 0.00 | 0.00 | 71 | 1013.0 |
| 20260905140732 | 26 | 346 | 0.0 | 3.2 | 0.00 | 0.00 | 0.00 | 71 | 1013.0 |
| 20260905140630 | 26 | 346 | 1.6 | 4.8 | 0.00 | 0.00 | 0.00 | 72 | 1013.0 |
| 20260905140533 | 26 | 346 | 1.6 | 4.8 | 0.00 | 0.00 | 0.00 | 72 | 1013.0 |
| 20260905140451 | 26 | 346 | 0.0 | 4.8 | 0.00 | 0.00 | 0.00 | 73 | 1013.0 |
| 20260905140328 | 26 | 347 | 0.0 | 4.8 | 0.00 | 0.00 | 0.00 | 73 | 1013.0 |
| 20260905140248 | 26 | 344 | 0.0 | 4.8 | 0.00 | 0.00 | 0.00 | 74 | 1013.0 |
| 20260905140158 | 26 | 346 | 0.0 | 4.8 | 0.00 | 0.00 | 0.00 | 74 | 1013.0 |
| 20260905140054 | 26 | 346 | 1.6 | 4.8 | 0.00 | 0.00 | 0.00 | 74 | 1013.0 |
| 20260905135930 | 26 | 344 | 1.6 | 4.8 | 0.00 | 0.00 | 0.00 | 75 | 1013.0 |
| 20260905135827 | 26 | 346 | 3.2 | 6.4 | 0.00 | 0.00 | 0.00 | 75 | 1013.0 |
| 20260905135727 | 26 | 346 | 1.6 | 8.0 | 0.00 | 0.00 | 0.00 | 75 | 1013.0 |
| 20260905135624 | 26 | 346 | 0.0 | 8.0 | 0.00 | 0.00 | 0.00 | 75 | 1013.0 |
| 20260905135527 | 26 | 346 | 0.0 | 8.0 | 0.00 | 0.00 | 0.00 | 75 | 1013.0 |
| 20260905135446 | 26 | 346 | 0.0 | 8.0 | 0.00 | 0.00 | 0.00 | 75 | 1013.0 |
| 20260905135404 | 26 | 344 | 0.0 | 8.0 | 0.00 | 0.00 | 0.00 | 75 | 1013.0 |
| 20260905135301 | 26 | 347 | 0.0 | 8.0 | 0.00 | 0.00 | 0.00 | 74 | 1013.0 |
| 20260905135137 | 26 | 346 | 1.6 | 8.0 | 0.00 | 0.00 | 0.00 | 74 | 1013.0 |
| 20260905135035 | 26 | 346 | 3.2 | 8.0 | 0.00 | 0.00 | 0.00 | 74 | 1013.0 |
| 20260905134933 | 26 | 347 | 4.8 | 8.0 | 0.00 | 0.00 | 0.00 | 74 | 1013.0 |
| 20260905134832 | 26 | 347 | 1.6 | 3.2 | 0.00 | 0.00 | 0.00 | 74 | 1013.0 |
| 20260905134754 | 26 | 342 | 0.0 | 3.2 | 0.00 | 0.00 | 0.00 | 75 | 1013.0 |
| 20260905134704 | 26 | 347 | 0.0 | 3.2 | 0.00 | 0.00 | 0.00 | 76 | 1013.0 |
| 20260905134542 | 26 | 347 | 0.0 | 3.2 | 0.00 | 0.00 | 0.00 | 76 | 1013.0 |
| 20260905134441 | 26 | 347 | 0.0 | 3.2 | 0.00 | 0.00 | 0.00 | 75 | 1013.0 |
| 20260905134340 | 26 | 346 | 0.0 | 3.2 | 0.00 | 0.00 | 0.00 | 75 | 1013.0 |
| 20260905134239 | 26 | 344 | 0.0 | 3.2 | 0.00 | 0.00 | 0.00 | 76 | 1013.1 |
| 20260905134136 | 26 | 347 | 0.0 | 3.2 | 0.00 | 0.00 | 0.00 | 77 | 1013.1 |
| 20260905134055 | 26 | 347 | 1.6 | 3.2 | 0.00 | 0.00 | 0.00 | 77 | 1013.1 |
| 20260905133936 | 26 | 347 | 0.0 | 1.6 | 0.00 | 0.00 | 0.00 | 77 | 1013.1 |
| 20260905133835 | 26 | 347 | 0.0 | 0.0 | 0.00 | 0.00 | 0.00 | 77 | 1013.1 |
| 20260905133734 | 26 | 347 | 0.0 | 0.0 | 0.00 | 0.00 | 0.00 | 77 | 1013.1 |
| 20260905133634 | 26 | 347 | 0.0 | 0.0 | 0.00 | 0.00 | 0.00 | 77 | 1013.1 |
| 20260905133531 | 26 | 347 | 0.0 | 0.0 | 0.00 | 0.00 | 0.00 | 77 | 1013.1 |
| 20260905133430 | 26 | 347 | 0.0 | 0.0 | 0.00 | 0.00 | 0.00 | 77 | 1013.1 |
| 20260905133332 | 26 | 347 | 0.0 | 0.0 | 0.00 | 0.00 | 0.00 | 77 | 1013.1 |
| 20260905133241 | 26 | 347 | 0.0 | 0.0 | 0.00 | 0.00 | 0.00 | 77 | 1013.1 |
| 20260905133150 | 26 | 347 | 0.0 | 0.0 | 0.00 | 0.00 | 0.00 | 77 | 1013.1 |
| 20260905133047 | 26 | 347 | 0.0 | 0.0 | 0.00 | 0.00 | 0.00 | 77 | 1013.1 |
| 20260905132924 | 26 | 347 | 0.0 | 0.0 | 0.00 | 0.00 | 0.00 | 77 | 1013.1 |
| 20260905132843 | 26 | 347 | 0.0 | 0.0 | 0.00 | 0.00 | 0.00 | 77 | 1013.1 |
| 20260905132741 | 26 | 347 | 0.0 | 0.0 | 0.00 | 0.00 | 0.00 | 77 | 1013.1 |
| 20260905132639 | 26 | 347 | 0.0 | 0.0 | 0.00 | 0.00 | 0.00 | 77 | 1013.1 |
| 20260905132542 | 26 | 346 | 0.0 | 0.0 | 0.00 | 0.00 | 0.00 | 77 | 1013.1 |
| 20260905132440 | 26 | 347 | 0.0 | 0.0 | 0.00 | 0.00 | 0.00 | 77 | 1013.1 |
| 20260905132359 | 26 | 347 | 0.0 | 0.0 | 0.00 | 0.00 | 0.00 | 77 | 1013.1 |
| 20260905132236 | 26 | 346 | 0.0 | 0.0 | 0.00 | 0.00 | 0.00 | 77 | 1013.1 |
| 20260905132154 | 26 | 346 | 0.0 | 0.0 | 0.00 | 0.00 | 0.00 | 77 | 1013.1 |
| 20260905132032 | 26 | 347 | 0.0 | 0.0 | 0.00 | 0.00 | 0.00 | 77 | 1013.1 |
| 20260905131930 | 26 | 346 | 0.0 | 0.0 | 0.00 | 0.00 | 0.00 | 78 | 1013.1 |
| 20260905131829 | 25 | 347 | 0.0 | 0.0 | 0.00 | 0.00 | 0.00 | 78 | 1013.1 |
| 20260905131735 | 25 | 344 | 0.0 | 0.0 | 0.00 | 0.00 | 0.00 | 78 | 1013.1 |
| 20260905131704 | 25 | 347 | 0.0 | 0.0 | 0.00 | 0.00 | 0.00 | 77 | 1013.1 |
| 20260905131601 | 25 | 347 | 0.0 | 0.0 | 0.00 | 0.00 | 0.00 | 77 | 1013.1 |
| 20260905131437 | 25 | 347 | 0.0 | 1.6 | 0.00 | 0.00 | 0.00 | 79 | 1013.1 |
| 20260905131335 | 25 | 347 | 0.0 | 3.2 | 0.00 | 0.00 | 0.00 | 79 | 1013.1 |
| 20260905131233 | 25 | 347 | 0.0 | 3.2 | 0.00 | 0.00 | 0.00 | 80 | 1013.1 |
| 20260905131132 | 25 | 346 | 0.0 | 3.2 | 0.00 | 0.00 | 0.00 | 80 | 1013.1 |
| 20260905131035 | 25 | 347 | 0.0 | 3.2 | 0.00 | 0.00 | 0.00 | 80 | 1013.1 |
| 20260905130934 | 25 | 347 | 0.0 | 3.2 | 0.00 | 0.00 | 0.00 | 80 | 1013.1 |
| 20260905130835 | 25 | 346 | 0.0 | 3.2 | 0.00 | 0.00 | 0.00 | 80 | 1013.1 |
| 20260905130734 | 25 | 347 | 0.0 | 3.2 | 0.00 | 0.00 | 0.00 | 80 | 1013.1 |
| 20260905130632 | 25 | 347 | 0.0 | 3.2 | 0.00 | 0.00 | 0.00 | 80 | 1013.1 |
| 20260905130530 | 25 | 347 | 1.6 | 3.2 | 0.00 | 0.00 | 0.00 | 80 | 1013.1 |
| 20260905130429 | 25 | 347 | 1.6 | 3.2 | 0.00 | 0.00 | 0.00 | 80 | 1013.1 |
| 20260905130331 | 25 | 347 | 1.6 | 3.2 | 0.00 | 0.00 | 0.00 | 80 | 1013.1 |
| 20260905130241 | 25 | 347 | 0.0 | 0.0 | 0.00 | 0.00 | 0.00 | 80 | 1013.1 |
| 20260905130151 | 25 | 346 | 0.0 | 0.0 | 0.00 | 0.00 | 0.00 | 80 | 1013.1 |
| 20260905130029 | 25 | 347 | 0.0 | 0.0 | 0.00 | 0.00 | 0.00 | 80 | 1013.1 |
| 20260905125946 | 25 | 344 | 0.0 | 0.0 | 0.00 | 0.00 | 0.00 | 80 | 1013.1 |
| 20260905125905 | 25 | 347 | 0.0 | 0.0 | 0.00 | 0.00 | 0.00 | 80 | 1013.1 |
| 20260905125741 | 25 | 344 | 0.0 | 0.0 | 0.00 | 0.00 | 0.00 | 79 | 1013.1 |
| 20260905125700 | 25 | 347 | 0.0 | 0.0 | 0.00 | 0.00 | 0.00 | 79 | 1013.1 |
| 20260905125541 | 25 | 346 | 0.0 | 0.0 | 0.00 | 0.00 | 0.00 | 79 | 1013.1 |
| 20260905125501 | 25 | 347 | 0.0 | 0.0 | 0.00 | 0.00 | 0.00 | 79 | 1013.1 |
| 20260905125357 | 25 | 347 | 0.0 | 0.0 | 0.00 | 0.00 | 0.00 | 79 | 1013.1 |
| 20260905125235 | 25 | 346 | 0.0 | 0.0 | 0.00 | 0.00 | 0.00 | 79 | 1013.1 |
| 20260905125133 | 25 | 347 | 0.0 | 0.0 | 0.00 | 0.00 | 0.00 | 78 | 1013.1 |
| 20260905125052 | 25 | 347 | 0.0 | 0.0 | 0.00 | 0.00 | 0.00 | 78 | 1013.1 |
| 20260905124929 | 25 | 346 | 0.0 | 0.0 | 0.00 | 0.00 | 0.00 | 78 | 1013.1 |
| 20260905124826 | 25 | 347 | 0.0 | 0.0 | 0.00 | 0.00 | 0.00 | 78 | 1013.1 |
| 20260905124729 | 25 | 347 | 0.0 | 0.0 | 0.00 | 0.00 | 0.00 | 78 | 1013.1 |
| 20260905124659 | 25 | 346 | 0.0 | 0.0 | 0.00 | 0.00 | 0.00 | 78 | 1013.1 |
| 20260905124537 | 25 | 346 | 0.0 | 0.0 | 0.00 | 0.00 | 0.00 | 78 | 1013.1 |
| 20260905124435 | 25 | 346 | 0.0 | 0.0 | 0.00 | 0.00 | 0.00 | 78 | 1013.1 |
| 20260905124353 | 25 | 347 | 0.0 | 0.0 | 0.00 | 0.00 | 0.00 | 78 | 1013.1 |
| 20260905124250 | 25 | 344 | 0.0 | 0.0 | 0.00 | 0.00 | 0.00 | 78 | 1013.1 |
| 20260905124128 | 25 | 347 | 0.0 | 0.0 | 0.00 | 0.00 | 0.00 | 79 | 1013.1 |
| 20260905124027 | 25 | 346 | 0.0 | 0.0 | 0.00 | 0.00 | 0.00 | 79 | 1013.1 |
| 20260905123925 | 25 | 347 | 0.0 | 0.0 | 0.00 | 0.00 | 0.00 | 79 | 1013.1 |
| 20260905123828 | 25 | 346 | 0.0 | 0.0 | 0.00 | 0.00 | 0.00 | 79 | 1013.1 |
| 20260905123726 | 25 | 344 | 0.0 | 0.0 | 0.00 | 0.00 | 0.00 | 79 | 1013.1 |
| 20260905123625 | 25 | 347 | 0.0 | 0.0 | 0.00 | 0.00 | 0.00 | 79 | 1013.1 |
| 20260905123542 | 25 | 347 | 0.0 | 0.0 | 0.00 | 0.00 | 0.00 | 79 | 1013.1 |
| 20260905123440 | 25 | 346 | 0.0 | 0.0 | 0.00 | 0.00 | 0.00 | 79 | 1013.1 |
| 20260905123339 | 25 | 344 | 0.0 | 1.6 | 0.00 | 0.00 | 0.00 | 79 | 1013.1 |
| 20260905123238 | 25 | 347 | 0.0 | 3.2 | 0.00 | 0.00 | 0.00 | 79 | 1013.1 |
| 20260905123213 | 25 | 347 | 0.0 | 3.2 | 0.00 | 0.00 | 0.00 | 79 | 1013.1 |
| 20260905123028 | 25 | 347 | 0.0 | 3.2 | 0.00 | 0.00 | 0.00 | 79 | 1013.1 |
| 20260905122927 | 25 | 347 | 0.0 | 4.8 | 0.00 | 0.00 | 0.00 | 78 | 1013.1 |
| 20260905122829 | 25 | 344 | 0.0 | 4.8 | 0.00 | 0.00 | 0.00 | 78 | 1013.1 |
| 20260905122747 | 25 | 347 | 0.0 | 4.8 | 0.00 | 0.00 | 0.00 | 78 | 1012.9 |
| 20260905122644 | 25 | 347 | 0.0 | 4.8 | 0.00 | 0.00 | 0.00 | 78 | 1012.9 |
| 20260905122541 | 25 | 347 | 0.0 | 4.8 | 0.00 | 0.00 | 0.00 | 78 | 1012.9 |
| 20260905122439 | 25 | 347 | 1.6 | 4.8 | 0.00 | 0.00 | 0.00 | 78 | 1012.9 |
| 20260905122401 | 25 | 347 | 1.6 | 4.8 | 0.00 | 0.00 | 0.00 | 78 | 1012.9 |
| 20260905122239 | 25 | 347 | 1.6 | 4.8 | 0.00 | 0.00 | 0.00 | 78 | 1012.9 |
| 20260905122135 | 25 | 346 | 3.2 | 4.8 | 0.00 | 0.00 | 0.00 | 78 | 1012.9 |
| 20260905122032 | 25 | 347 | 3.2 | 4.8 | 0.00 | 0.00 | 0.00 | 78 | 1012.9 |
| 20260905121932 | 25 | 346 | 3.2 | 4.8 | 0.00 | 0.00 | 0.00 | 78 | 1012.9 |
| 20260905121831 | 25 | 347 | 3.2 | 3.2 | 0.00 | 0.00 | 0.00 | 78 | 1012.9 |
| 20260905121730 | 25 | 347 | 0.0 | 1.6 | 0.00 | 0.00 | 0.00 | 78 | 1012.9 |
| 20260905121659 | 25 | 346 | 0.0 | 3.2 | 0.00 | 0.00 | 0.00 | 78 | 1012.9 |
| 20260905121541 | 25 | 346 | 0.0 | 3.2 | 0.00 | 0.00 | 0.00 | 78 | 1012.9 |
| 20260905121440 | 25 | 347 | 0.0 | 3.2 | 0.00 | 0.00 | 0.00 | 78 | 1012.9 |
| 20260905121338 | 25 | 347 | 0.0 | 4.8 | 0.00 | 0.00 | 0.00 | 78 | 1012.9 |
| 20260905121237 | 25 | 347 | 0.0 | 4.8 | 0.00 | 0.00 | 0.00 | 78 | 1012.6 |
| 20260905121135 | 25 | 347 | 0.0 | 4.8 | 0.00 | 0.00 | 0.00 | 78 | 1012.6 |
| 20260905121033 | 25 | 347 | 0.0 | 4.8 | 0.00 | 0.00 | 0.00 | 78 | 1012.6 |
| 20260905120951 | 25 | 347 | 0.0 | 4.8 | 0.00 | 0.00 | 0.00 | 77 | 1012.6 |
| 20260905120832 | 25 | 342 | 1.6 | 4.8 | 0.00 | 0.00 | 0.00 | 77 | 1012.6 |
| 20260905120731 | 25 | 347 | 3.2 | 4.8 | 0.00 | 0.00 | 0.00 | 77 | 1012.6 |
| 20260905120630 | 25 | 347 | 1.6 | 4.8 | 0.00 | 0.00 | 0.00 | 77 | 1012.6 |
| 20260905120529 | 25 | 347 | 3.2 | 4.8 | 0.00 | 0.00 | 0.00 | 77 | 1012.6 |
| 20260905120427 | 25 | 347 | 3.2 | 4.8 | 0.00 | 0.00 | 0.00 | 77 | 1012.6 |
| 20260905120326 | 25 | 347 | 3.2 | 4.8 | 0.00 | 0.00 | 0.00 | 77 | 1012.6 |
| 20260905120239 | 25 | 347 | 3.2 | 4.8 | 0.00 | 0.00 | 0.00 | 77 | 1012.6 |
| 20260905120148 | 25 | 347 | 3.2 | 4.8 | 0.00 | 0.00 | 0.00 | 77 | 1012.6 |
| 20260905120025 | 25 | 347 | 1.6 | 4.8 | 0.00 | 0.00 | 0.00 | 77 | 1012.6 |
| 20260905115943 | 25 | 344 | 3.2 | 4.8 | 0.00 | 0.00 | 0.00 | 77 | 1012.6 |
| 20260905115841 | 25 | 344 | 3.2 | 4.8 | 0.00 | 0.00 | 0.00 | 77 | 1012.6 |
| 20260905115739 | 25 | 347 | 1.6 | 3.2 | 0.00 | 0.00 | 0.00 | 77 | 1012.4 |
| 20260905115638 | 25 | 344 | 3.2 | 3.2 | 0.00 | 0.00 | 0.00 | 77 | 1012.4 |
| 20260905115536 | 25 | 347 | 1.6 | 3.2 | 0.00 | 0.00 | 0.00 | 77 | 1012.4 |
| 20260905115439 | 25 | 347 | 1.6 | 3.2 | 0.00 | 0.00 | 0.00 | 77 | 1012.4 |
| 20260905115338 | 25 | 346 | 1.6 | 4.8 | 0.00 | 0.00 | 0.00 | 76 | 1012.4 |
| 20260905115256 | 25 | 347 | 0.0 | 4.8 | 0.00 | 0.00 | 0.00 | 76 | 1012.4 |
| 20260905115132 | 25 | 343 | 0.0 | 4.8 | 0.00 | 0.00 | 0.00 | 76 | 1012.4 |
| 20260905115031 | 25 | 347 | 1.6 | 4.8 | 0.00 | 0.00 | 0.00 | 76 | 1012.4 |
| 20260905114929 | 25 | 347 | 1.6 | 4.8 | 0.00 | 0.00 | 0.00 | 76 | 1012.4 |
| 20260905114848 | 25 | 346 | 1.6 | 4.8 | 0.00 | 0.00 | 0.00 | 76 | 1012.4 |
| 20260905114736 | 25 | 346 | 3.2 | 4.8 | 0.00 | 0.00 | 0.00 | 76 | 1012.4 |
| 20260905114649 | 25 | 344 | 3.2 | 6.4 | 0.00 | 0.00 | 0.00 | 76 | 1012.4 |
| 20260905114548 | 25 | 344 | 3.2 | 8.0 | 0.00 | 0.00 | 0.00 | 76 | 1012.4 |
| 20260905114425 | 25 | 347 | 3.2 | 8.0 | 0.00 | 0.00 | 0.00 | 76 | 1012.4 |
| 20260905114324 | 25 | 347 | 3.2 | 8.0 | 0.00 | 0.00 | 0.00 | 76 | 1012.4 |
| 20260905114242 | 25 | 347 | 3.2 | 8.0 | 0.00 | 0.00 | 0.00 | 77 | 1012.2 |
| 20260905114141 | 25 | 346 | 4.8 | 8.0 | 0.00 | 0.00 | 0.00 | 77 | 1012.2 |
| 20260905114039 | 25 | 347 | 4.8 | 8.0 | 0.00 | 0.00 | 0.00 | 77 | 1012.2 |
| 20260905113937 | 25 | 346 | 3.2 | 8.0 | 0.00 | 0.00 | 0.00 | 77 | 1012.2 |
| 20260905113859 | 25 | 347 | 4.8 | 8.0 | 0.00 | 0.00 | 0.00 | 77 | 1012.2 |
| 20260905113736 | 25 | 343 | 6.4 | 8.0 | 0.00 | 0.00 | 0.00 | 77 | 1012.2 |
| 20260905113636 | 25 | 349 | 6.4 | 8.0 | 0.00 | 0.00 | 0.00 | 77 | 1012.2 |
| 20260905113535 | 25 | 349 | 6.4 | 8.0 | 0.00 | 0.00 | 0.00 | 77 | 1012.2 |
| 20260905113432 | 25 | 350 | 6.4 | 8.0 | 0.00 | 0.00 | 0.00 | 77 | 1012.2 |
| 20260905113330 | 25 | 347 | 4.8 | 8.0 | 0.00 | 0.00 | 0.00 | 77 | 1012.2 |
| 20260905113229 | 25 | 350 | 6.4 | 8.0 | 0.00 | 0.00 | 0.00 | 77 | 1012.2 |
| 20260905113159 | 25 | 352 | 6.4 | 8.0 | 0.00 | 0.00 | 0.00 | 77 | 1012.2 |
| 20260905113039 | 25 | 353 | 8.0 | 8.0 | 0.00 | 0.00 | 0.00 | 77 | 1012.2 |
| 20260905112957 | 25 | 352 | 6.4 | 8.0 | 0.00 | 0.00 | 0.00 | 77 | 1012.2 |
| 20260905112835 | 25 | 352 | 6.4 | 8.0 | 0.00 | 0.00 | 0.00 | 77 | 1012.2 |
| 20260905112734 | 25 | 352 | 6.4 | 8.0 | 0.00 | 0.00 | 0.00 | 77 | 1012.1 |
| 20260905112631 | 25 | 353 | 6.4 | 8.0 | 0.00 | 0.00 | 0.00 | 77 | 1012.1 |
| 20260905112531 | 25 | 356 | 6.4 | 8.0 | 0.00 | 0.00 | 0.00 | 77 | 1012.1 |
| 20260905112430 | 25 | 356 | 4.8 | 8.0 | 0.00 | 0.00 | 0.00 | 77 | 1012.1 |
| 20260905112332 | 25 | 1 | 4.8 | 8.0 | 0.00 | 0.00 | 0.00 | 77 | 1012.1 |
| 20260905112229 | 25 | 360 | 6.4 | 8.0 | 0.00 | 0.00 | 0.00 | 77 | 1012.1 |
| 20260905112128 | 25 | 1 | 4.8 | 8.0 | 0.00 | 0.00 | 0.00 | 77 | 1012.1 |
| 20260905112026 | 25 | 360 | 4.8 | 8.0 | 0.00 | 0.00 | 0.00 | 77 | 1012.1 |
| 20260905111925 | 25 | 360 | 4.8 | 8.0 | 0.00 | 0.00 | 0.00 | 77 | 1012.1 |
| 20260905111843 | 25 | 1 | 4.8 | 8.0 | 0.00 | 0.00 | 0.00 | 77 | 1012.1 |
| 20260905111726 | 25 | 360 | 4.8 | 4.8 | 0.00 | 0.00 | 0.00 | 77 | 1012.1 |
| 20260905111654 | 25 | 360 | 4.8 | 6.4 | 0.00 | 0.00 | 0.00 | 77 | 1012.1 |
| 20260905111532 | 25 | 360 | 4.8 | 6.4 | 0.00 | 0.00 | 0.00 | 77 | 1012.1 |
| 20260905111431 | 25 | 1 | 4.8 | 6.4 | 0.00 | 0.00 | 0.00 | 76 | 1012.1 |
| 20260905111326 | 25 | 1 | 3.2 | 6.4 | 0.00 | 0.00 | 0.00 | 76 | 1012.1 |
| 20260905111225 | 25 | 1 | 4.8 | 8.0 | 0.00 | 0.00 | 0.00 | 76 | 1011.8 |
| 20260905111143 | 25 | 360 | 4.8 | 8.0 | 0.00 | 0.00 | 0.00 | 76 | 1011.8 |
| 20260905111042 | 25 | 1 | 4.8 | 8.0 | 0.00 | 0.00 | 0.00 | 76 | 1011.8 |
| 20260905110925 | 25 | 360 | 3.2 | 8.0 | 0.00 | 0.00 | 0.00 | 76 | 1011.8 |
| 20260905110843 | 25 | 360 | 4.8 | 8.0 | 0.00 | 0.00 | 0.00 | 76 | 1011.8 |
| 20260905110742 | 25 | 360 | 4.8 | 8.0 | 0.00 | 0.00 | 0.00 | 76 | 1011.8 |
| 20260905110640 | 25 | 1 | 4.8 | 8.0 | 0.00 | 0.00 | 0.00 | 76 | 1011.8 |
| 20260905110559 | 25 | 3 | 4.8 | 8.0 | 0.00 | 0.00 | 0.00 | 76 | 1011.8 |
| 20260905110456 | 25 | 3 | 4.8 | 8.0 | 0.00 | 0.00 | 0.00 | 76 | 1011.8 |
| 20260905110332 | 25 | 4 | 4.8 | 8.0 | 0.00 | 0.00 | 0.00 | 77 | 1011.8 |
| 20260905110252 | 25 | 4 | 4.8 | 8.0 | 0.00 | 0.00 | 0.00 | 77 | 1011.8 |
| 20260905110224 | 25 | 3 | 4.8 | 8.0 | 0.00 | 0.00 | 0.00 | 77 | 1011.8 |
| 20260905110104 | 25 | 6 | 4.8 | 8.0 | 0.00 | 0.00 | 0.00 | 77 | 1011.8 |
| 20260905105941 | 25 | 7 | 4.8 | 8.0 | 0.00 | 0.00 | 0.00 | 77 | 1011.8 |
| 20260905105841 | 25 | 8 | 4.8 | 8.0 | 0.00 | 0.00 | 0.00 | 77 | 1011.8 |
| 20260905105739 | 25 | 7 | 4.8 | 4.8 | 0.00 | 0.00 | 0.00 | 77 | 1011.8 |
| 20260905105658 | 25 | 6 | 3.2 | 8.0 | 0.00 | 0.00 | 0.00 | 76 | 1011.8 |
| 20260905105535 | 25 | 6 | 3.2 | 8.0 | 0.00 | 0.00 | 0.00 | 76 | 1011.8 |
| 20260905105433 | 25 | 8 | 3.2 | 8.0 | 0.00 | 0.00 | 0.00 | 76 | 1011.8 |
| 20260905105337 | 25 | 8 | 3.2 | 8.0 | 0.00 | 0.00 | 0.00 | 77 | 1011.8 |
| 20260905105233 | 25 | 8 | 3.2 | 8.0 | 0.00 | 0.00 | 0.00 | 77 | 1011.8 |
| 20260905105132 | 25 | 6 | 3.2 | 8.0 | 0.00 | 0.00 | 0.00 | 77 | 1011.8 |
| 20260905105031 | 25 | 6 | 3.2 | 8.0 | 0.00 | 0.00 | 0.00 | 77 | 1011.8 |
| 20260905104929 | 25 | 7 | 4.8 | 8.0 | 0.00 | 0.00 | 0.00 | 77 | 1011.8 |
| 20260905104828 | 25 | 10 | 4.8 | 8.0 | 0.00 | 0.00 | 0.00 | 77 | 1011.8 |
| 20260905104726 | 25 | 7 | 6.4 | 8.0 | 0.00 | 0.00 | 0.00 | 77 | 1011.8 |
| 20260905104657 | 25 | 7 | 6.4 | 8.0 | 0.00 | 0.00 | 0.00 | 77 | 1011.8 |
| 20260905104538 | 25 | 7 | 4.8 | 6.4 | 0.00 | 0.00 | 0.00 | 77 | 1011.8 |
| 20260905104436 | 25 | 10 | 4.8 | 8.0 | 0.00 | 0.00 | 0.00 | 76 | 1011.8 |
| 20260905104354 | 25 | 10 | 4.8 | 8.0 | 0.00 | 0.00 | 0.00 | 76 | 1011.8 |
| 20260905104231 | 25 | 10 | 4.8 | 8.0 | 0.00 | 0.00 | 0.00 | 77 | 1011.5 |
| 20260905104151 | 25 | 11 | 4.8 | 8.0 | 0.00 | 0.00 | 0.00 | 77 | 1011.5 |
| 20260905104029 | 25 | 10 | 4.8 | 8.0 | 0.00 | 0.00 | 0.00 | 77 | 1011.5 |
| 20260905103931 | 25 | 11 | 4.8 | 8.0 | 0.00 | 0.00 | 0.00 | 77 | 1011.5 |
| 20260905103832 | 25 | 10 | 4.8 | 8.0 | 0.00 | 0.00 | 0.00 | 77 | 1011.5 |
| 20260905103730 | 25 | 14 | 4.8 | 8.0 | 0.00 | 0.00 | 0.00 | 77 | 1011.5 |
| 20260905103629 | 25 | 13 | 4.8 | 8.0 | 0.00 | 0.00 | 0.00 | 76 | 1011.5 |
| 20260905103527 | 25 | 17 | 4.8 | 8.0 | 0.00 | 0.00 | 0.00 | 76 | 1011.5 |
| 20260905103427 | 25 | 18 | 4.8 | 8.0 | 0.00 | 0.00 | 0.00 | 76 | 1011.5 |
| 20260905103325 | 25 | 45 | 4.8 | 8.0 | 0.00 | 0.00 | 0.00 | 76 | 1011.5 |
| 20260905103255 | 25 | 88 | 4.8 | 8.0 | 0.00 | 0.00 | 0.00 | 76 | 1011.5 |
| 20260905103144 | 25 | 90 | 4.8 | 8.0 | 0.00 | 0.00 | 0.00 | 76 | 1011.5 |
| 20260905103047 | 25 | 90 | 4.8 | 8.0 | 0.00 | 0.00 | 0.00 | 76 | 1011.5 |
| 20260905102924 | 25 | 93 | 4.8 | 8.0 | 0.00 | 0.00 | 0.00 | 76 | 1011.5 |
| 20260905102826 | 25 | 93 | 4.8 | 8.0 | 0.00 | 0.00 | 0.00 | 76 | 1011.5 |
| 20260905102724 | 25 | 93 | 4.8 | 4.8 | 0.00 | 0.00 | 0.00 | 77 | 1011.5 |
| 20260905102643 | 25 | 93 | 4.8 | 4.8 | 0.00 | 0.00 | 0.00 | 77 | 1011.5 |
| 20260905102601 | 25 | 93 | 3.2 | 4.8 | 0.00 | 0.00 | 0.00 | 77 | 1011.5 |
| 20260905102439 | 25 | 90 | 4.8 | 4.8 | 0.00 | 0.00 | 0.00 | 76 | 1011.5 |
| 20260905102337 | 25 | 92 | 4.8 | 4.8 | 0.00 | 0.00 | 0.00 | 76 | 1011.5 |
| 20260905102240 | 25 | 93 | 3.2 | 4.8 | 0.00 | 0.00 | 0.00 | 76 | 1011.5 |
| 20260905102138 | 25 | 95 | 3.2 | 4.8 | 0.00 | 0.00 | 0.00 | 76 | 1011.5 |
| 20260905102037 | 25 | 92 | 4.8 | 4.8 | 0.00 | 0.00 | 0.00 | 76 | 1011.5 |
| 20260905101935 | 25 | 95 | 4.8 | 4.8 | 0.00 | 0.00 | 0.00 | 76 | 1011.5 |
| 20260905101833 | 25 | 92 | 4.8 | 4.8 | 0.00 | 0.00 | 0.00 | 76 | 1011.5 |
| 20260905101731 | 25 | 93 | 3.2 | 4.8 | 0.00 | 0.00 | 0.00 | 76 | 1011.5 |
| 20260905101659 | 25 | 95 | 3.2 | 4.8 | 0.00 | 0.00 | 0.00 | 76 | 1011.5 |
| 20260905101540 | 25 | 95 | 3.2 | 4.8 | 0.00 | 0.00 | 0.00 | 76 | 1011.5 |
| 20260905101439 | 25 | 95 | 3.2 | 4.8 | 0.00 | 0.00 | 0.00 | 77 | 1011.5 |
| 20260905101338 | 25 | 96 | 3.2 | 4.8 | 0.00 | 0.00 | 0.00 | 77 | 1011.5 |
| 20260905101238 | 25 | 96 | 3.2 | 4.8 | 0.00 | 0.00 | 0.00 | 76 | 1011.6 |
| 20260905101136 | 25 | 96 | 3.2 | 4.8 | 0.00 | 0.00 | 0.00 | 76 | 1011.6 |
| 20260905101034 | 25 | 97 | 4.8 | 4.8 | 0.00 | 0.00 | 0.00 | 76 | 1011.6 |
| 20260905100933 | 25 | 96 | 3.2 | 4.8 | 0.00 | 0.00 | 0.00 | 76 | 1011.6 |
| 20260905100836 | 25 | 96 | 3.2 | 4.8 | 0.00 | 0.00 | 0.00 | 76 | 1011.6 |
| 20260905100734 | 25 | 95 | 3.2 | 4.8 | 0.00 | 0.00 | 0.00 | 77 | 1011.6 |
| 20260905100634 | 25 | 96 | 3.2 | 4.8 | 0.00 | 0.00 | 0.00 | 77 | 1011.6 |
| 20260905100535 | 25 | 96 | 1.6 | 4.8 | 0.00 | 0.00 | 0.00 | 77 | 1011.6 |
| 20260905100434 | 25 | 96 | 3.2 | 4.8 | 0.00 | 0.00 | 0.00 | 76 | 1011.6 |
| 20260905100352 | 25 | 96 | 3.2 | 4.8 | 0.00 | 0.00 | 0.00 | 76 | 1011.6 |
| 20260905100301 | 25 | 96 | 3.2 | 4.8 | 0.00 | 0.00 | 0.00 | 76 | 1011.6 |
| 20260905100149 | 25 | 96 | 3.2 | 4.8 | 0.00 | 0.00 | 0.00 | 76 | 1011.6 |
| 20260905100032 | 25 | 96 | 3.2 | 4.8 | 0.00 | 0.00 | 0.00 | 76 | 1011.6 |
| 20260905095951 | 25 | 96 | 3.2 | 4.8 | 0.00 | 0.00 | 0.00 | 77 | 1011.6 |
| 20260905095828 | 25 | 96 | 3.2 | 4.8 | 0.00 | 0.00 | 0.00 | 77 | 1011.6 |
| 20260905095727 | 25 | 96 | 3.2 | 4.8 | 0.00 | 0.00 | 0.00 | 76 | 1011.6 |
| 20260905095625 | 25 | 96 | 3.2 | 4.8 | 0.00 | 0.00 | 0.00 | 77 | 1011.6 |
| 20260905095525 | 25 | 97 | 3.2 | 4.8 | 0.00 | 0.00 | 0.00 | 76 | 1011.6 |
| 20260905095443 | 25 | 96 | 3.2 | 4.8 | 0.00 | 0.00 | 0.00 | 76 | 1011.6 |
| 20260905095325 | 25 | 95 | 3.2 | 4.8 | 0.00 | 0.00 | 0.00 | 76 | 1011.6 |
| 20260905095226 | 25 | 96 | 3.2 | 4.8 | 0.00 | 0.00 | 0.00 | 76 | 1011.6 |
| 20260905095125 | 25 | 96 | 1.6 | 4.8 | 0.00 | 0.00 | 0.00 | 76 | 1011.6 |
| 20260905095043 | 25 | 96 | 3.2 | 4.8 | 0.00 | 0.00 | 0.00 | 76 | 1011.6 |
| 20260905094942 | 25 | 96 | 3.2 | 4.8 | 0.00 | 0.00 | 0.00 | 76 | 1011.6 |
| 20260905094840 | 25 | 96 | 1.6 | 4.8 | 0.00 | 0.00 | 0.00 | 76 | 1011.6 |
| 20260905094759 | 25 | 95 | 3.2 | 4.8 | 0.00 | 0.00 | 0.00 | 77 | 1011.6 |
| 20260905094707 | 25 | 93 | 3.2 | 4.8 | 0.00 | 0.00 | 0.00 | 77 | 1011.6 |
| 20260905094527 | 25 | 95 | 3.2 | 4.8 | 0.00 | 0.00 | 0.00 | 76 | 1011.6 |
| 20260905094426 | 25 | 95 | 3.2 | 4.8 | 0.00 | 0.00 | 0.00 | 76 | 1011.6 |
| 20260905094344 | 25 | 95 | 3.2 | 4.8 | 0.00 | 0.00 | 0.00 | 76 | 1011.6 |
| 20260905094242 | 25 | 93 | 1.6 | 4.8 | 0.00 | 0.00 | 0.00 | 76 | 1011.5 |
| 20260905094122 | 25 | 95 | 0.0 | 0.0 | 0.00 | 0.00 | 0.00 | 76 | 1011.5 |
| 20260905094024 | 25 | 93 | 0.0 | 0.0 | 0.00 | 0.00 | 0.00 | 76 | 1011.5 |
| 20260905093925 | 25 | 93 | 0.0 | 0.0 | 0.00 | 0.00 | 0.00 | 76 | 1011.5 |
| 20260905093844 | 25 | 93 | 0.0 | 0.0 | 0.00 | 0.00 | 0.00 | 76 | 1011.5 |
| 20260905093742 | 25 | 95 | 0.0 | 0.0 | 0.00 | 0.00 | 0.00 | 76 | 1011.5 |
| 20260905093641 | 25 | 93 | 0.0 | 0.0 | 0.00 | 0.00 | 0.00 | 76 | 1011.5 |
| 20260905093559 | 25 | 95 | 0.0 | 0.0 | 0.00 | 0.00 | 0.00 | 76 | 1011.5 |
| 20260905093436 | 25 | 95 | 0.0 | 0.0 | 0.00 | 0.00 | 0.00 | 76 | 1011.5 |
| 20260905093354 | 25 | 95 | 0.0 | 0.0 | 0.00 | 0.00 | 0.00 | 76 | 1011.5 |
| 20260905093242 | 25 | 95 | 0.0 | 0.0 | 0.00 | 0.00 | 0.00 | 76 | 1011.5 |
| 20260905093151 | 25 | 95 | 0.0 | 0.0 | 0.00 | 0.00 | 0.00 | 75 | 1011.5 |
| 20260905093052 | 25 | 93 | 0.0 | 0.0 | 0.00 | 0.00 | 0.00 | 75 | 1011.5 |
| 20260905092929 | 25 | 95 | 0.0 | 0.0 | 0.00 | 0.00 | 0.00 | 75 | 1011.5 |
| 20260905092826 | 25 | 93 | 0.0 | 0.0 | 0.00 | 0.00 | 0.00 | 75 | 1011.5 |
| 20260905092724 | 25 | 95 | 0.0 | 0.0 | 0.00 | 0.00 | 0.00 | 75 | 1011.4 |
| 20260905092643 | 25 | 95 | 0.0 | 0.0 | 0.00 | 0.00 | 0.00 | 75 | 1011.4 |
| 20260905092543 | 25 | 93 | 0.0 | 3.2 | 0.00 | 0.00 | 0.00 | 75 | 1011.4 |
| 20260905092501 | 25 | 93 | 0.0 | 3.2 | 0.00 | 0.00 | 0.00 | 75 | 1011.4 |
| 20260905092337 | 25 | 95 | 0.0 | 3.2 | 0.00 | 0.00 | 0.00 | 75 | 1011.4 |
| 20260905092242 | 25 | 95 | 0.0 | 4.8 | 0.00 | 0.00 | 0.00 | 75 | 1011.4 |
| 20260905092140 | 25 | 95 | 0.0 | 4.8 | 0.00 | 0.00 | 0.00 | 75 | 1011.4 |
| 20260905092038 | 25 | 93 | 0.0 | 4.8 | 0.00 | 0.00 | 0.00 | 75 | 1011.4 |
| 20260905091936 | 25 | 95 | 0.0 | 4.8 | 0.00 | 0.00 | 0.00 | 75 | 1011.4 |
| 20260905091834 | 25 | 95 | 0.0 | 4.8 | 0.00 | 0.00 | 0.00 | 75 | 1011.4 |
| 20260905091743 | 25 | 95 | 1.6 | 4.8 | 0.00 | 0.00 | 0.00 | 75 | 1011.4 |
| 20260905091652 | 25 | 93 | 3.2 | 4.8 | 0.00 | 0.00 | 0.00 | 75 | 1011.4 |
| 20260905091555 | 25 | 93 | 3.2 | 4.8 | 0.00 | 0.00 | 0.00 | 75 | 1011.4 |
| 20260905091431 | 25 | 95 | 3.2 | 4.8 | 0.00 | 0.00 | 0.00 | 75 | 1011.4 |
| 20260905091350 | 25 | 95 | 3.2 | 4.8 | 0.00 | 0.00 | 0.00 | 75 | 1011.4 |
| 20260905091229 | 25 | 96 | 3.2 | 4.8 | 0.00 | 0.00 | 0.00 | 75 | 1011.4 |
| 20260905091127 | 25 | 95 | 3.2 | 4.8 | 0.00 | 0.00 | 0.00 | 75 | 1011.4 |
| 20260905091025 | 25 | 96 | 3.2 | 4.8 | 0.00 | 0.00 | 0.00 | 75 | 1011.4 |
| 20260905090924 | 25 | 96 | 3.2 | 4.8 | 0.00 | 0.00 | 0.00 | 75 | 1011.4 |
| 20260905090828 | 25 | 95 | 3.2 | 4.8 | 0.00 | 0.00 | 0.00 | 75 | 1011.4 |
| 20260905090724 | 25 | 95 | 1.6 | 3.2 | 0.00 | 0.00 | 0.00 | 75 | 1011.4 |
| 20260905090643 | 25 | 96 | 1.6 | 3.2 | 0.00 | 0.00 | 0.00 | 75 | 1011.4 |
| 20260905090541 | 25 | 95 | 1.6 | 3.2 | 0.00 | 0.00 | 0.00 | 75 | 1011.4 |
| 20260905090440 | 25 | 95 | 1.6 | 3.2 | 0.00 | 0.00 | 0.00 | 75 | 1011.4 |
| 20260905090358 | 25 | 96 | 1.6 | 3.2 | 0.00 | 0.00 | 0.00 | 75 | 1011.4 |
| 20260905090236 | 25 | 95 | 1.6 | 3.2 | 0.00 | 0.00 | 0.00 | 75 | 1011.4 |
| 20260905090206 | 25 | 92 | 1.6 | 3.2 | 0.00 | 0.00 | 0.00 | 75 | 1011.4 |
| 20260905085943 | 25 | 95 | 0.0 | 3.2 | 0.00 | 0.00 | 0.00 | 75 | 1011.4 |
| 20260905085843 | 25 | 93 | 0.0 | 3.2 | 0.00 | 0.00 | 0.00 | 75 | 1011.4 |
| 20260905085742 | 25 | 95 | 0.0 | 3.2 | 0.00 | 0.00 | 0.00 | 75 | 1011.4 |
| 20260905085702 | 25 | 95 | 0.0 | 3.2 | 0.00 | 0.00 | 0.00 | 76 | 1011.4 |
| 20260905085539 | 25 | 95 | 0.0 | 3.2 | 0.00 | 0.00 | 0.00 | 76 | 1011.4 |
| 20260905085436 | 25 | 93 | 3.2 | 3.2 | 0.00 | 0.00 | 0.00 | 76 | 1011.4 |
| 20260905085334 | 25 | 95 | 3.2 | 3.2 | 0.00 | 0.00 | 0.00 | 76 | 1011.4 |
| 20260905085252 | 25 | 95 | 3.2 | 3.2 | 0.00 | 0.00 | 0.00 | 76 | 1011.4 |
| 20260905085132 | 25 | 96 | 1.6 | 3.2 | 0.00 | 0.00 | 0.00 | 76 | 1011.4 |
| 20260905085031 | 25 | 96 | 0.0 | 1.6 | 0.00 | 0.00 | 0.00 | 76 | 1011.4 |
| 20260905084930 | 25 | 96 | 0.0 | 0.0 | 0.00 | 0.00 | 0.00 | 76 | 1011.4 |
| 20260905084829 | 25 | 96 | 0.0 | 0.0 | 0.00 | 0.00 | 0.00 | 76 | 1011.4 |
| 20260905084738 | 25 | 95 | 0.0 | 0.0 | 0.00 | 0.00 | 0.00 | 76 | 1011.4 |
| 20260905084647 | 25 | 96 | 0.0 | 0.0 | 0.00 | 0.00 | 0.00 | 76 | 1011.4 |
| 20260905084525 | 25 | 96 | 0.0 | 0.0 | 0.00 | 0.00 | 0.00 | 76 | 1011.4 |
| 20260905084428 | 25 | 97 | 0.0 | 0.0 | 0.00 | 0.00 | 0.00 | 76 | 1011.4 |
| 20260905084328 | 25 | 95 | 0.0 | 0.0 | 0.00 | 0.00 | 0.00 | 76 | 1011.4 |
| 20260905084227 | 25 | 96 | 0.0 | 0.0 | 0.00 | 0.00 | 0.00 | 76 | 1011.4 |
| 20260905084145 | 25 | 96 | 0.0 | 0.0 | 0.00 | 0.00 | 0.00 | 76 | 1011.4 |
| 20260905084026 | 25 | 95 | 0.0 | 1.6 | 0.00 | 0.00 | 0.00 | 75 | 1011.4 |
| 20260905083925 | 25 | 96 | 0.0 | 1.6 | 0.00 | 0.00 | 0.00 | 75 | 1011.4 |
| 20260905083842 | 25 | 96 | 0.0 | 1.6 | 0.00 | 0.00 | 0.00 | 75 | 1011.4 |
| 20260905083739 | 25 | 93 | 0.0 | 1.6 | 0.00 | 0.00 | 0.00 | 75 | 1011.4 |
| 20260905083642 | 25 | 95 | 0.0 | 1.6 | 0.00 | 0.00 | 0.00 | 75 | 1011.4 |
| 20260905083540 | 25 | 95 | 0.0 | 1.6 | 0.00 | 0.00 | 0.00 | 75 | 1011.4 |
| 20260905083438 | 25 | 96 | 0.0 | 1.6 | 0.00 | 0.00 | 0.00 | 75 | 1011.4 |
| 20260905083338 | 25 | 96 | 0.0 | 1.6 | 0.00 | 0.00 | 0.00 | 75 | 1011.4 |
| 20260905083256 | 25 | 96 | 1.6 | 1.6 | 0.00 | 0.00 | 0.00 | 75 | 1011.4 |
| 20260905083228 | 25 | 97 | 0.0 | 1.6 | 0.00 | 0.00 | 0.00 | 76 | 1011.4 |
| 20260905083103 | 25 | 96 | 0.0 | 0.0 | 0.00 | 0.00 | 0.00 | 76 | 1011.4 |
| 20260905082941 | 25 | 95 | 0.0 | 0.0 | 0.00 | 0.00 | 0.00 | 76 | 1011.4 |
| 20260905082904 | 25 | 96 | 0.0 | 0.0 | 0.00 | 0.00 | 0.00 | 76 | 1011.4 |
| 20260905082741 | 25 | 96 | 0.0 | 0.0 | 0.00 | 0.00 | 0.00 | 76 | 1011.4 |
| 20260905082639 | 25 | 96 | 0.0 | 0.0 | 0.00 | 0.00 | 0.00 | 76 | 1011.4 |
| 20260905082556 | 25 | 93 | 0.0 | 0.0 | 0.00 | 0.00 | 0.00 | 76 | 1011.4 |
| 20260905082433 | 25 | 96 | 0.0 | 0.0 | 0.00 | 0.00 | 0.00 | 76 | 1011.4 |
| 20260905082331 | 25 | 96 | 0.0 | 0.0 | 0.00 | 0.00 | 0.00 | 76 | 1011.4 |
| 20260905082230 | 25 | 96 | 0.0 | 0.0 | 0.00 | 0.00 | 0.00 | 76 | 1011.4 |
| 20260905082133 | 25 | 95 | 0.0 | 0.0 | 0.00 | 0.00 | 0.00 | 76 | 1011.4 |
| 20260905082051 | 25 | 95 | 0.0 | 0.0 | 0.00 | 0.00 | 0.00 | 76 | 1011.4 |
| 20260905081930 | 25 | 95 | 0.0 | 0.0 | 0.00 | 0.00 | 0.00 | 75 | 1011.4 |
| 20260905081828 | 25 | 96 | 0.0 | 0.0 | 0.00 | 0.00 | 0.00 | 75 | 1011.4 |
| 20260905081738 | 25 | 96 | 0.0 | 0.0 | 0.00 | 0.00 | 0.00 | 75 | 1011.4 |
| 20260905081647 | 25 | 93 | 0.0 | 0.0 | 0.00 | 0.00 | 0.00 | 75 | 1011.4 |
| 20260905081546 | 25 | 97 | 0.0 | 0.0 | 0.00 | 0.00 | 0.00 | 75 | 1011.4 |
| 20260905081444 | 25 | 92 | 0.0 | 0.0 | 0.00 | 0.00 | 0.00 | 75 | 1011.4 |
| 20260905081402 | 25 | 93 | 0.0 | 0.0 | 0.00 | 0.00 | 0.00 | 75 | 1011.4 |
| 20260905081224 | 25 | 97 | 0.0 | 0.0 | 0.00 | 0.00 | 0.00 | 75 | 1011.9 |
| 20260905081142 | 25 | 93 | 0.0 | 0.0 | 0.00 | 0.00 | 0.00 | 75 | 1011.9 |
| 20260905081042 | 25 | 96 | 0.0 | 0.0 | 0.00 | 0.00 | 0.00 | 75 | 1011.9 |
| 20260905080940 | 25 | 96 | 0.0 | 1.6 | 0.00 | 0.00 | 0.00 | 75 | 1011.9 |
| 20260905080859 | 25 | 96 | 0.0 | 1.6 | 0.00 | 0.00 | 0.00 | 75 | 1011.9 |
| 20260905080736 | 25 | 95 | 0.0 | 3.2 | 0.00 | 0.00 | 0.00 | 75 | 1011.9 |
| 20260905080654 | 25 | 96 | 0.0 | 3.2 | 0.00 | 0.00 | 0.00 | 75 | 1011.9 |
| 20260905080532 | 25 | 96 | 0.0 | 3.2 | 0.00 | 0.00 | 0.00 | 75 | 1011.9 |
| 20260905080433 | 25 | 96 | 0.0 | 3.2 | 0.00 | 0.00 | 0.00 | 75 | 1011.9 |
| 20260905080332 | 25 | 96 | 0.0 | 3.2 | 0.00 | 0.00 | 0.00 | 75 | 1011.9 |
| 20260905080301 | 25 | 96 | 0.0 | 3.2 | 0.00 | 0.00 | 0.00 | 75 | 1011.9 |
| 20260905080151 | 25 | 96 | 0.0 | 3.2 | 0.00 | 0.00 | 0.00 | 75 | 1011.9 |
| 20260905080026 | 25 | 97 | 1.6 | 3.2 | 0.00 | 0.00 | 0.00 | 75 | 1011.9 |
| 20260905075925 | 25 | 95 | 1.6 | 4.8 | 0.00 | 0.00 | 0.00 | 75 | 1011.9 |
| 20260905075843 | 25 | 96 | 1.6 | 4.8 | 0.00 | 0.00 | 0.00 | 76 | 1011.9 |
| 20260905075741 | 25 | 95 | 0.0 | 4.8 | 0.00 | 0.00 | 0.00 | 76 | 1011.9 |
| 20260905075639 | 25 | 96 | 0.0 | 4.8 | 0.00 | 0.00 | 0.00 | 76 | 1011.9 |
| 20260905075543 | 25 | 96 | 0.0 | 4.8 | 0.00 | 0.00 | 0.00 | 76 | 1011.9 |
| 20260905075501 | 25 | 96 | 1.6 | 4.8 | 0.00 | 0.00 | 0.00 | 76 | 1011.9 |
| 20260905075338 | 25 | 97 | 1.6 | 4.8 | 0.00 | 0.00 | 0.00 | 76 | 1011.9 |
| 20260905075236 | 25 | 96 | 1.6 | 4.8 | 0.00 | 0.00 | 0.00 | 76 | 1011.9 |
| 20260905075134 | 25 | 95 | 3.2 | 4.8 | 0.00 | 0.00 | 0.00 | 76 | 1011.9 |
| 20260905075032 | 25 | 96 | 0.0 | 3.2 | 0.00 | 0.00 | 0.00 | 76 | 1011.9 |
| 20260905074932 | 25 | 96 | 0.0 | 3.2 | 0.00 | 0.00 | 0.00 | 76 | 1011.9 |
| 20260905074854 | 25 | 96 | 0.0 | 3.2 | 0.00 | 0.00 | 0.00 | 76 | 1011.9 |
| 20260905074733 | 25 | 96 | 0.0 | 3.2 | 0.00 | 0.00 | 0.00 | 76 | 1011.9 |
| 20260905074702 | 25 | 96 | 0.0 | 3.2 | 0.00 | 0.00 | 0.00 | 76 | 1011.9 |
| 20260905074540 | 25 | 95 | 0.0 | 3.2 | 0.00 | 0.00 | 0.00 | 76 | 1011.9 |
| 20260905074459 | 25 | 96 | 0.0 | 3.2 | 0.00 | 0.00 | 0.00 | 75 | 1011.9 |
| 20260905074357 | 25 | 96 | 0.0 | 3.2 | 0.00 | 0.00 | 0.00 | 75 | 1011.9 |
| 20260905074234 | 25 | 96 | 1.6 | 3.2 | 0.00 | 0.00 | 0.00 | 75 | 1012.0 |
| 20260905074154 | 25 | 96 | 1.6 | 3.2 | 0.00 | 0.00 | 0.00 | 75 | 1012.0 |
| 20260905074032 | 25 | 96 | 1.6 | 3.2 | 0.00 | 0.00 | 0.00 | 75 | 1012.0 |
| 20260905073934 | 25 | 96 | 0.0 | 1.6 | 0.00 | 0.00 | 0.00 | 74 | 1012.0 |
| 20260905073832 | 25 | 96 | 0.0 | 0.0 | 0.00 | 0.00 | 0.00 | 74 | 1012.0 |
| 20260905073731 | 25 | 96 | 0.0 | 0.0 | 0.00 | 0.00 | 0.00 | 74 | 1012.0 |
| 20260905073629 | 26 | 96 | 0.0 | 0.0 | 0.00 | 0.00 | 0.00 | 74 | 1012.0 |
| 20260905073529 | 26 | 96 | 0.0 | 0.0 | 0.00 | 0.00 | 0.00 | 74 | 1012.0 |
| 20260905073428 | 26 | 96 | 0.0 | 0.0 | 0.00 | 0.00 | 0.00 | 74 | 1012.0 |
| 20260905073327 | 26 | 96 | 0.0 | 0.0 | 0.00 | 0.00 | 0.00 | 74 | 1012.0 |
| 20260905073203 | 26 | 96 | 0.0 | 0.0 | 0.00 | 0.00 | 0.00 | 74 | 1012.0 |
| 20260905073040 | 26 | 96 | 0.0 | 0.0 | 0.00 | 0.00 | 0.00 | 74 | 1012.0 |
| 20260905072939 | 26 | 96 | 0.0 | 0.0 | 0.00 | 0.00 | 0.00 | 74 | 1012.0 |
| 20260905072835 | 26 | 95 | 0.0 | 0.0 | 0.00 | 0.00 | 0.00 | 74 | 1012.0 |
| 20260905072733 | 26 | 96 | 0.0 | 0.0 | 0.00 | 0.00 | 0.00 | 75 | 1012.0 |
| 20260905072632 | 26 | 96 | 0.0 | 0.0 | 0.00 | 0.00 | 0.00 | 75 | 1012.0 |
| 20260905072534 | 26 | 96 | 0.0 | 0.0 | 0.00 | 0.00 | 0.00 | 75 | 1012.0 |
| 20260905072433 | 26 | 96 | 0.0 | 0.0 | 0.00 | 0.00 | 0.00 | 75 | 1012.0 |
| 20260905072331 | 26 | 96 | 0.0 | 0.0 | 0.00 | 0.00 | 0.00 | 74 | 1012.0 |
| 20260905072228 | 26 | 96 | 0.0 | 0.0 | 0.00 | 0.00 | 0.00 | 74 | 1012.0 |
| 20260905072128 | 26 | 96 | 0.0 | 3.2 | 0.00 | 0.00 | 0.00 | 74 | 1012.0 |
| 20260905072047 | 26 | 95 | 0.0 | 3.2 | 0.00 | 0.00 | 0.00 | 74 | 1012.0 |
| 20260905071924 | 26 | 96 | 0.0 | 3.2 | 0.00 | 0.00 | 0.00 | 74 | 1012.0 |
| 20260905071826 | 26 | 96 | 0.0 | 4.8 | 0.00 | 0.00 | 0.00 | 74 | 1012.0 |
| 20260905071725 | 26 | 96 | 0.0 | 4.8 | 0.00 | 0.00 | 0.00 | 74 | 1012.0 |
| 20260905071656 | 26 | 92 | 0.0 | 4.8 | 0.00 | 0.00 | 0.00 | 74 | 1012.0 |
| 20260905071533 | 26 | 93 | 0.0 | 4.8 | 0.00 | 0.00 | 0.00 | 74 | 1012.0 |
| 20260905071431 | 26 | 95 | 0.0 | 4.8 | 0.00 | 0.00 | 0.00 | 74 | 1012.0 |
| 20260905071330 | 26 | 95 | 0.0 | 4.8 | 0.00 | 0.00 | 0.00 | 74 | 1012.0 |
| 20260905071247 | 26 | 96 | 3.2 | 4.8 | 0.00 | 0.00 | 0.00 | 74 | 1012.0 |
| 20260905071125 | 26 | 95 | 3.2 | 4.8 | 0.00 | 0.00 | 0.00 | 74 | 1012.0 |
| 20260905071027 | 26 | 95 | 3.2 | 4.8 | 0.00 | 0.00 | 0.00 | 74 | 1012.0 |
| 20260905070926 | 26 | 93 | 3.2 | 4.8 | 0.00 | 0.00 | 0.00 | 74 | 1012.0 |
| 20260905070843 | 26 | 96 | 1.6 | 4.8 | 0.00 | 0.00 | 0.00 | 74 | 1012.0 |
| 20260905070743 | 26 | 96 | 1.6 | 4.8 | 0.00 | 0.00 | 0.00 | 74 | 1012.0 |
| 20260905070701 | 26 | 95 | 1.6 | 4.8 | 0.00 | 0.00 | 0.00 | 74 | 1012.0 |
| 20260905070539 | 26 | 93 | 3.2 | 4.8 | 0.00 | 0.00 | 0.00 | 74 | 1012.0 |
| 20260905070435 | 26 | 95 | 3.2 | 4.8 | 0.00 | 0.00 | 0.00 | 74 | 1012.0 |
| 20260905070354 | 26 | 96 | 3.2 | 4.8 | 0.00 | 0.00 | 0.00 | 74 | 1012.0 |
| 20260905070235 | 26 | 96 | 3.2 | 4.8 | 0.00 | 0.00 | 0.00 | 74 | 1012.0 |
| 20260905070206 | 26 | 95 | 3.2 | 4.8 | 0.00 | 0.00 | 0.00 | 74 | 1012.0 |
| 20260905065941 | 26 | 96 | 1.6 | 4.8 | 0.00 | 0.00 | 0.00 | 74 | 1012.0 |
| 20260905065839 | 26 | 96 | 0.0 | 4.8 | 0.00 | 0.00 | 0.00 | 74 | 1012.0 |
| 20260905065758 | 26 | 96 | 0.0 | 4.8 | 0.00 | 0.00 | 0.00 | 73 | 1012.1 |
| 20260905065655 | 26 | 96 | 0.0 | 4.8 | 0.00 | 0.00 | 0.00 | 74 | 1012.1 |
| 20260905065554 | 26 | 96 | 0.0 | 4.8 | 0.00 | 0.00 | 0.00 | 73 | 1012.1 |
| 20260905065430 | 26 | 96 | 0.0 | 4.8 | 0.00 | 0.00 | 0.00 | 73 | 1012.1 |
| 20260905065333 | 26 | 95 | 0.0 | 4.8 | 0.00 | 0.00 | 0.00 | 73 | 1012.1 |
| 20260905065231 | 26 | 95 | 3.2 | 4.8 | 0.00 | 0.00 | 0.00 | 73 | 1012.1 |
| 20260905065130 | 26 | 93 | 1.6 | 4.8 | 0.00 | 0.00 | 0.00 | 73 | 1012.1 |
| 20260905065028 | 26 | 95 | 3.2 | 4.8 | 0.00 | 0.00 | 0.00 | 73 | 1012.1 |
| 20260905064927 | 26 | 93 | 3.2 | 4.8 | 0.00 | 0.00 | 0.00 | 73 | 1012.1 |
| 20260905064824 | 26 | 96 | 3.2 | 4.8 | 0.00 | 0.00 | 0.00 | 73 | 1012.1 |
| 20260905064727 | 26 | 96 | 3.2 | 4.8 | 0.00 | 0.00 | 0.00 | 73 | 1012.1 |
| 20260905064659 | 26 | 96 | 3.2 | 4.8 | 0.00 | 0.00 | 0.00 | 74 | 1012.1 |
| 20260905064556 | 26 | 96 | 3.2 | 4.8 | 0.00 | 0.00 | 0.00 | 74 | 1012.1 |
| 20260905064434 | 26 | 95 | 1.6 | 4.8 | 0.00 | 0.00 | 0.00 | 74 | 1012.1 |
| 20260905064333 | 26 | 95 | 1.6 | 4.8 | 0.00 | 0.00 | 0.00 | 74 | 1012.1 |
| 20260905064231 | 26 | 95 | 3.2 | 4.8 | 0.00 | 0.00 | 0.00 | 74 | 1012.3 |
| 20260905064150 | 26 | 93 | 3.2 | 4.8 | 0.00 | 0.00 | 0.00 | 74 | 1012.3 |
| 20260905064029 | 26 | 95 | 1.6 | 4.8 | 0.00 | 0.00 | 0.00 | 74 | 1012.3 |
| 20260905063929 | 26 | 95 | 1.6 | 4.8 | 0.00 | 0.00 | 0.00 | 74 | 1012.3 |
| 20260905063830 | 26 | 95 | 3.2 | 4.8 | 0.00 | 0.00 | 0.00 | 74 | 1012.3 |
| 20260905063728 | 26 | 93 | 1.6 | 3.2 | 0.00 | 0.00 | 0.00 | 74 | 1012.3 |
| 20260905063627 | 26 | 93 | 3.2 | 3.2 | 0.00 | 0.00 | 0.00 | 74 | 1012.3 |
| 20260905063525 | 26 | 93 | 1.6 | 3.2 | 0.00 | 0.00 | 0.00 | 74 | 1012.3 |
| 20260905063424 | 26 | 93 | 0.0 | 3.2 | 0.00 | 0.00 | 0.00 | 74 | 1012.3 |
| 20260905063343 | 26 | 93 | 0.0 | 3.2 | 0.00 | 0.00 | 0.00 | 74 | 1012.3 |
| 20260905063236 | 26 | 92 | 0.0 | 3.2 | 0.00 | 0.00 | 0.00 | 73 | 1012.3 |
| 20260905063147 | 26 | 93 | 0.0 | 3.2 | 0.00 | 0.00 | 0.00 | 73 | 1012.3 |
| 20260905063042 | 26 | 92 | 1.6 | 3.2 | 0.00 | 0.00 | 0.00 | 73 | 1012.3 |
| 20260905062941 | 26 | 93 | 1.6 | 3.2 | 0.00 | 0.00 | 0.00 | 73 | 1012.3 |
| 20260905062839 | 26 | 93 | 1.6 | 3.2 | 0.00 | 0.00 | 0.00 | 73 | 1012.3 |
| 20260905062738 | 26 | 93 | 1.6 | 4.8 | 0.00 | 0.00 | 0.00 | 73 | 1012.4 |
| 20260905062636 | 26 | 93 | 3.2 | 4.8 | 0.00 | 0.00 | 0.00 | 73 | 1012.4 |
| 20260905062534 | 26 | 93 | 3.2 | 4.8 | 0.00 | 0.00 | 0.00 | 73 | 1012.4 |
| 20260905062436 | 26 | 93 | 3.2 | 4.8 | 0.00 | 0.00 | 0.00 | 73 | 1012.4 |
| 20260905062355 | 26 | 95 | 1.6 | 4.8 | 0.00 | 0.00 | 0.00 | 72 | 1012.4 |
| 20260905062232 | 26 | 93 | 0.0 | 4.8 | 0.00 | 0.00 | 0.00 | 72 | 1012.4 |
| 20260905062131 | 26 | 93 | 1.6 | 4.8 | 0.00 | 0.00 | 0.00 | 72 | 1012.4 |
| 20260905062029 | 26 | 93 | 1.6 | 4.8 | 0.00 | 0.00 | 0.00 | 72 | 1012.4 |
| 20260905061928 | 26 | 93 | 1.6 | 4.8 | 0.00 | 0.00 | 0.00 | 72 | 1012.4 |
| 20260905061826 | 26 | 93 | 3.2 | 4.8 | 0.00 | 0.00 | 0.00 | 72 | 1012.4 |
| 20260905061738 | 26 | 93 | 3.2 | 3.2 | 0.00 | 0.00 | 0.00 | 72 | 1012.4 |
| 20260905061647 | 26 | 93 | 1.6 | 3.2 | 0.00 | 0.00 | 0.00 | 72 | 1012.4 |
| 20260905061525 | 26 | 93 | 0.0 | 3.2 | 0.00 | 0.00 | 0.00 | 72 | 1012.4 |
| 20260905061424 | 26 | 92 | 1.6 | 4.8 | 0.00 | 0.00 | 0.00 | 72 | 1012.4 |
| 20260905061343 | 26 | 96 | 0.0 | 4.8 | 0.00 | 0.00 | 0.00 | 72 | 1012.4 |
| 20260905061241 | 26 | 96 | 0.0 | 4.8 | 0.00 | 0.00 | 0.00 | 72 | 1012.4 |
| 20260905061139 | 26 | 97 | 0.0 | 4.8 | 0.00 | 0.00 | 0.00 | 73 | 1012.4 |
| 20260905061038 | 26 | 95 | 0.0 | 4.8 | 0.00 | 0.00 | 0.00 | 73 | 1012.4 |
| 20260905061001 | 26 | 96 | 0.0 | 4.8 | 0.00 | 0.00 | 0.00 | 73 | 1012.4 |
| 20260905060837 | 26 | 97 | 1.6 | 4.8 | 0.00 | 0.00 | 0.00 | 73 | 1012.4 |
| 20260905060736 | 26 | 97 | 1.6 | 4.8 | 0.00 | 0.00 | 0.00 | 73 | 1012.4 |
| 20260905060655 | 26 | 96 | 3.2 | 4.8 | 0.00 | 0.00 | 0.00 | 73 | 1012.4 |
| 20260905060531 | 26 | 96 | 1.6 | 4.8 | 0.00 | 0.00 | 0.00 | 73 | 1012.4 |
| 20260905060430 | 26 | 97 | 3.2 | 4.8 | 0.00 | 0.00 | 0.00 | 72 | 1012.4 |
| 20260905060326 | 26 | 97 | 3.2 | 4.8 | 0.00 | 0.00 | 0.00 | 72 | 1012.4 |
| 20260905060236 | 26 | 97 | 3.2 | 4.8 | 0.00 | 0.00 | 0.00 | 72 | 1012.4 |
| 20260905060148 | 26 | 99 | 1.6 | 4.8 | 0.00 | 0.00 | 0.00 | 72 | 1012.4 |
| 20260905060025 | 26 | 97 | 1.6 | 4.8 | 0.00 | 0.00 | 0.00 | 72 | 1012.4 |
| 20260905055943 | 26 | 95 | 1.6 | 4.8 | 0.00 | 0.00 | 0.00 | 72 | 1012.4 |
| 20260905055842 | 26 | 97 | 1.6 | 4.8 | 0.00 | 0.00 | 0.00 | 72 | 1012.4 |
| 20260905055740 | 26 | 96 | 3.2 | 4.8 | 0.00 | 0.00 | 0.00 | 72 | 1012.5 |
| 20260905055639 | 26 | 97 | 3.2 | 4.8 | 0.00 | 0.00 | 0.00 | 72 | 1012.5 |
| 20260905055538 | 26 | 97 | 1.6 | 4.8 | 0.00 | 0.00 | 0.00 | 72 | 1012.5 |
| 20260905055440 | 26 | 97 | 1.6 | 4.8 | 0.00 | 0.00 | 0.00 | 72 | 1012.5 |
| 20260905055339 | 26 | 97 | 3.2 | 6.4 | 0.00 | 0.00 | 0.00 | 72 | 1012.5 |
| 20260905055257 | 26 | 97 | 3.2 | 6.4 | 0.00 | 0.00 | 0.00 | 72 | 1012.5 |
| 20260905055133 | 26 | 97 | 3.2 | 6.4 | 0.00 | 0.00 | 0.00 | 72 | 1012.5 |
| 20260905055032 | 26 | 97 | 3.2 | 6.4 | 0.00 | 0.00 | 0.00 | 72 | 1012.5 |
| 20260905054930 | 26 | 97 | 4.8 | 6.4 | 0.00 | 0.00 | 0.00 | 73 | 1012.5 |
| 20260905054828 | 26 | 99 | 4.8 | 6.4 | 0.00 | 0.00 | 0.00 | 73 | 1012.5 |
| 20260905054735 | 26 | 97 | 3.2 | 6.4 | 0.00 | 0.00 | 0.00 | 72 | 1012.5 |
| 20260905054649 | 26 | 97 | 3.2 | 8.0 | 0.00 | 0.00 | 0.00 | 72 | 1012.5 |
| 20260905054546 | 26 | 97 | 4.8 | 8.0 | 0.00 | 0.00 | 0.00 | 72 | 1012.5 |
| 20260905054505 | 26 | 97 | 3.2 | 8.0 | 0.00 | 0.00 | 0.00 | 72 | 1012.5 |
| 20260905054403 | 26 | 97 | 3.2 | 8.0 | 0.00 | 0.00 | 0.00 | 72 | 1012.5 |
| 20260905054240 | 26 | 97 | 3.2 | 8.0 | 0.00 | 0.00 | 0.00 | 72 | 1012.5 |
| 20260905054138 | 26 | 95 | 3.2 | 8.0 | 0.00 | 0.00 | 0.00 | 72 | 1012.5 |
| 20260905054037 | 26 | 97 | 3.2 | 8.0 | 0.00 | 0.00 | 0.00 | 72 | 1012.5 |
| 20260905053935 | 26 | 97 | 4.8 | 8.0 | 0.00 | 0.00 | 0.00 | 72 | 1012.5 |
| 20260905053837 | 26 | 96 | 6.4 | 8.0 | 0.00 | 0.00 | 0.00 | 72 | 1012.5 |
| 20260905053735 | 26 | 97 | 6.4 | 8.0 | 0.00 | 0.00 | 0.00 | 73 | 1012.5 |
| 20260905053634 | 26 | 97 | 4.8 | 8.0 | 0.00 | 0.00 | 0.00 | 72 | 1012.5 |
| 20260905053532 | 26 | 93 | 6.4 | 8.0 | 0.00 | 0.00 | 0.00 | 72 | 1012.5 |
| 20260905053431 | 26 | 97 | 6.4 | 8.0 | 0.00 | 0.00 | 0.00 | 72 | 1012.5 |
| 20260905053328 | 26 | 90 | 6.4 | 8.0 | 0.00 | 0.00 | 0.00 | 72 | 1012.5 |
| 20260905053227 | 26 | 97 | 4.8 | 8.0 | 0.00 | 0.00 | 0.00 | 72 | 1012.5 |
| 20260905053157 | 26 | 96 | 4.8 | 8.0 | 0.00 | 0.00 | 0.00 | 72 | 1012.5 |
| 20260905053038 | 26 | 95 | 4.8 | 8.0 | 0.00 | 0.00 | 0.00 | 72 | 1012.5 |
| 20260905052937 | 26 | 96 | 3.2 | 8.0 | 0.00 | 0.00 | 0.00 | 72 | 1012.5 |
| 20260905052834 | 26 | 96 | 3.2 | 8.0 | 0.00 | 0.00 | 0.00 | 72 | 1012.5 |
| 20260905052733 | 26 | 96 | 4.8 | 8.0 | 0.00 | 0.00 | 0.00 | 72 | 1012.4 |
| 20260905052633 | 26 | 97 | 4.8 | 8.0 | 0.00 | 0.00 | 0.00 | 72 | 1012.4 |
| 20260905052530 | 26 | 97 | 3.2 | 8.0 | 0.00 | 0.00 | 0.00 | 71 | 1012.4 |
| 20260905052449 | 26 | 96 | 4.8 | 8.0 | 0.00 | 0.00 | 0.00 | 71 | 1012.4 |
| 20260905052351 | 26 | 95 | 6.4 | 8.0 | 0.00 | 0.00 | 0.00 | 71 | 1012.4 |
| 20260905052229 | 26 | 96 | 4.8 | 8.0 | 0.00 | 0.00 | 0.00 | 71 | 1012.4 |
| 20260905052126 | 26 | 96 | 6.4 | 8.0 | 0.00 | 0.00 | 0.00 | 71 | 1012.4 |
| 20260905052024 | 26 | 95 | 6.4 | 8.0 | 0.00 | 0.00 | 0.00 | 71 | 1012.4 |
| 20260905051942 | 26 | 96 | 6.4 | 8.0 | 0.00 | 0.00 | 0.00 | 71 | 1012.4 |
| 20260905051901 | 26 | 96 | 4.8 | 8.0 | 0.00 | 0.00 | 0.00 | 71 | 1012.4 |
| 20260905051759 | 26 | 96 | 4.8 | 8.0 | 0.00 | 0.00 | 0.00 | 71 | 1012.4 |
| 20260905051646 | 26 | 96 | 4.8 | 9.7 | 0.00 | 0.00 | 0.00 | 71 | 1012.4 |
| 20260905051543 | 26 | 96 | 3.2 | 9.7 | 0.00 | 0.00 | 0.00 | 71 | 1012.4 |
| 20260905051445 | 26 | 97 | 4.8 | 9.7 | 0.00 | 0.00 | 0.00 | 72 | 1012.4 |
| 20260905051346 | 26 | 96 | 4.8 | 9.7 | 0.00 | 0.00 | 0.00 | 71 | 1012.4 |
| 20260905051224 | 26 | 96 | 6.4 | 9.7 | 0.00 | 0.00 | 0.00 | 71 | 1012.8 |
| 20260905051143 | 26 | 96 | 4.8 | 9.7 | 0.00 | 0.00 | 0.00 | 71 | 1012.8 |
| 20260905051041 | 26 | 95 | 6.4 | 9.7 | 0.00 | 0.00 | 0.00 | 71 | 1012.8 |
| 20260905050940 | 26 | 95 | 4.8 | 9.7 | 0.00 | 0.00 | 0.00 | 72 | 1012.8 |
| 20260905050839 | 26 | 93 | 4.8 | 9.7 | 0.00 | 0.00 | 0.00 | 72 | 1012.8 |
| 20260905050737 | 26 | 93 | 6.4 | 9.7 | 0.00 | 0.00 | 0.00 | 71 | 1012.8 |
| 20260905050639 | 26 | 90 | 6.4 | 9.7 | 0.00 | 0.00 | 0.00 | 71 | 1012.8 |
| 20260905050536 | 26 | 86 | 6.4 | 9.7 | 0.00 | 0.00 | 0.00 | 72 | 1012.8 |
| 20260905050435 | 26 | 86 | 6.4 | 9.7 | 0.00 | 0.00 | 0.00 | 71 | 1012.8 |
| 20260905050334 | 26 | 86 | 4.8 | 9.7 | 0.00 | 0.00 | 0.00 | 71 | 1012.8 |
| 20260905050243 | 26 | 86 | 8.0 | 9.7 | 0.00 | 0.00 | 0.00 | 71 | 1012.8 |
| 20260905050153 | 26 | 85 | 6.4 | 9.7 | 0.00 | 0.00 | 0.00 | 71 | 1012.8 |
| 20260905050030 | 26 | 80 | 8.0 | 9.7 | 0.00 | 0.00 | 0.00 | 71 | 1012.8 |
| 20260905045932 | 26 | 83 | 8.0 | 9.7 | 0.00 | 0.00 | 0.00 | 71 | 1012.8 |
| 20260905045831 | 26 | 83 | 8.0 | 9.7 | 0.00 | 0.00 | 0.00 | 71 | 1012.8 |
| 20260905045729 | 26 | 82 | 8.0 | 9.7 | 0.00 | 0.00 | 0.00 | 71 | 1012.8 |
| 20260905045627 | 26 | 78 | 6.4 | 9.7 | 0.00 | 0.00 | 0.00 | 71 | 1012.8 |
| 20260905045545 | 26 | 79 | 6.4 | 9.7 | 0.00 | 0.00 | 0.00 | 71 | 1012.8 |
| 20260905045503 | 26 | 79 | 6.4 | 9.7 | 0.00 | 0.00 | 0.00 | 71 | 1012.8 |
| 20260905045401 | 26 | 79 | 8.0 | 9.7 | 0.00 | 0.00 | 0.00 | 71 | 1012.8 |
| 20260905045237 | 26 | 79 | 6.4 | 9.7 | 0.00 | 0.00 | 0.00 | 71 | 1012.8 |
| 20260905045140 | 26 | 78 | 4.8 | 9.7 | 0.00 | 0.00 | 0.00 | 71 | 1012.8 |
| 20260905045039 | 26 | 78 | 4.8 | 9.7 | 0.00 | 0.00 | 0.00 | 71 | 1012.8 |
| 20260905044937 | 26 | 78 | 6.4 | 9.7 | 0.00 | 0.00 | 0.00 | 71 | 1012.8 |
| 20260905044836 | 26 | 78 | 6.4 | 9.7 | 0.00 | 0.00 | 0.00 | 71 | 1012.8 |
| 20260905044804 | 26 | 78 | 6.4 | 9.7 | 0.00 | 0.00 | 0.00 | 71 | 1012.8 |
| 20260905044651 | 26 | 78 | 8.0 | 11.3 | 0.00 | 0.00 | 0.00 | 71 | 1012.8 |
| 20260905044529 | 26 | 76 | 6.4 | 11.3 | 0.00 | 0.00 | 0.00 | 71 | 1012.8 |
| 20260905044432 | 26 | 76 | 6.4 | 11.3 | 0.00 | 0.00 | 0.00 | 71 | 1012.8 |
| 20260905044330 | 26 | 78 | 8.0 | 11.3 | 0.00 | 0.00 | 0.00 | 70 | 1012.8 |
| 20260905044226 | 26 | 78 | 4.8 | 11.3 | 0.00 | 0.00 | 0.00 | 70 | 1012.8 |
| 20260905044124 | 26 | 78 | 6.4 | 11.3 | 0.00 | 0.00 | 0.00 | 70 | 1012.8 |
| 20260905044042 | 26 | 75 | 4.8 | 11.3 | 0.00 | 0.00 | 0.00 | 70 | 1012.8 |
| 20260905044000 | 26 | 78 | 4.8 | 11.3 | 0.00 | 0.00 | 0.00 | 71 | 1012.8 |
| 20260905043837 | 26 | 76 | 6.4 | 11.3 | 0.00 | 0.00 | 0.00 | 71 | 1012.8 |
| 20260905043736 | 26 | 78 | 8.0 | 11.3 | 0.00 | 0.00 | 0.00 | 70 | 1012.8 |
| 20260905043640 | 26 | 76 | 4.8 | 9.7 | 0.00 | 0.00 | 0.00 | 71 | 1012.8 |
| 20260905043539 | 26 | 75 | 4.8 | 9.7 | 0.00 | 0.00 | 0.00 | 70 | 1012.8 |
| 20260905043438 | 26 | 75 | 8.0 | 9.7 | 0.00 | 0.00 | 0.00 | 70 | 1012.8 |
| 20260905043336 | 26 | 75 | 8.0 | 9.7 | 0.00 | 0.00 | 0.00 | 70 | 1012.8 |
| 20260905043254 | 26 | 73 | 6.4 | 9.7 | 0.00 | 0.00 | 0.00 | 70 | 1012.8 |
| 20260905043205 | 26 | 75 | 6.4 | 11.3 | 0.00 | 0.00 | 0.00 | 70 | 1012.8 |
| 20260905043041 | 26 | 69 | 8.0 | 11.3 | 0.00 | 0.00 | 0.00 | 70 | 1012.8 |
| 20260905043000 | 26 | 73 | 8.0 | 11.3 | 0.00 | 0.00 | 0.00 | 70 | 1012.8 |
| 20260905042841 | 26 | 72 | 6.4 | 11.3 | 0.00 | 0.00 | 0.00 | 70 | 1012.8 |
| 20260905042800 | 26 | 72 | 8.0 | 11.3 | 0.00 | 0.00 | 0.00 | 70 | 1012.8 |
| 20260905042642 | 26 | 71 | 8.0 | 11.3 | 0.00 | 0.00 | 0.00 | 70 | 1012.8 |
| 20260905042542 | 26 | 69 | 9.7 | 11.3 | 0.00 | 0.00 | 0.00 | 70 | 1012.8 |
| 20260905042440 | 26 | 71 | 8.0 | 11.3 | 0.00 | 0.00 | 0.00 | 70 | 1012.8 |
| 20260905042338 | 26 | 71 | 9.7 | 11.3 | 0.00 | 0.00 | 0.00 | 70 | 1012.8 |
| 20260905042236 | 26 | 71 | 8.0 | 9.7 | 0.00 | 0.00 | 0.00 | 70 | 1012.8 |
| 20260905042139 | 26 | 71 | 8.0 | 9.7 | 0.00 | 0.00 | 0.00 | 69 | 1012.8 |
| 20260905042037 | 26 | 71 | 6.4 | 9.7 | 0.00 | 0.00 | 0.00 | 69 | 1012.8 |
| 20260905041935 | 26 | 71 | 6.4 | 9.7 | 0.00 | 0.00 | 0.00 | 70 | 1012.8 |
| 20260905041832 | 26 | 71 | 6.4 | 9.7 | 0.00 | 0.00 | 0.00 | 70 | 1012.8 |
| 20260905041741 | 26 | 71 | 8.0 | 9.7 | 0.00 | 0.00 | 0.00 | 71 | 1012.8 |
| 20260905041649 | 26 | 69 | 9.7 | 9.7 | 0.00 | 0.00 | 0.00 | 71 | 1012.8 |
| 20260905041526 | 26 | 71 | 9.7 | 9.7 | 0.00 | 0.00 | 0.00 | 71 | 1012.8 |
| 20260905041424 | 26 | 69 | 6.4 | 9.7 | 0.00 | 0.00 | 0.00 | 71 | 1012.8 |
| 20260905041346 | 26 | 69 | 8.0 | 9.7 | 0.00 | 0.00 | 0.00 | 70 | 1012.8 |
| 20260905041305 | 26 | 68 | 9.7 | 9.7 | 0.00 | 0.00 | 0.00 | 70 | 1012.9 |
| 20260905041141 | 26 | 69 | 8.0 | 9.7 | 0.00 | 0.00 | 0.00 | 70 | 1012.9 |
| 20260905041101 | 26 | 69 | 8.0 | 9.7 | 0.00 | 0.00 | 0.00 | 70 | 1012.9 |
| 20260905040938 | 26 | 71 | 9.7 | 9.7 | 0.00 | 0.00 | 0.00 | 70 | 1012.9 |
| 20260905040856 | 26 | 71 | 8.0 | 9.7 | 0.00 | 0.00 | 0.00 | 70 | 1012.9 |
| 20260905040734 | 26 | 69 | 8.0 | 9.7 | 0.00 | 0.00 | 0.00 | 69 | 1012.9 |
| 20260905040652 | 26 | 69 | 8.0 | 9.7 | 0.00 | 0.00 | 0.00 | 69 | 1012.9 |
| 20260905040528 | 26 | 69 | 8.0 | 9.7 | 0.00 | 0.00 | 0.00 | 69 | 1012.9 |
| 20260905040425 | 26 | 69 | 8.0 | 9.7 | 0.00 | 0.00 | 0.00 | 69 | 1012.9 |
| 20260905040347 | 26 | 66 | 8.0 | 9.7 | 0.00 | 0.00 | 0.00 | 70 | 1012.9 |
| 20260905040244 | 26 | 68 | 8.0 | 9.7 | 0.00 | 0.00 | 0.00 | 70 | 1012.9 |
| 20260905040155 | 26 | 69 | 8.0 | 9.7 | 0.00 | 0.00 | 0.00 | 70 | 1012.9 |
| 20260905040050 | 26 | 66 | 8.0 | 9.7 | 0.00 | 0.00 | 0.00 | 70 | 1012.9 |
| 20260905035930 | 26 | 69 | 8.0 | 9.7 | 0.00 | 0.00 | 0.00 | 70 | 1012.9 |
| 20260905035829 | 26 | 68 | 8.0 | 9.7 | 0.00 | 0.00 | 0.00 | 70 | 1012.9 |
| 20260905035726 | 26 | 69 | 6.4 | 9.7 | 0.00 | 0.00 | 0.00 | 70 | 1013.1 |
| 20260905035625 | 26 | 68 | 8.0 | 9.7 | 0.00 | 0.00 | 0.00 | 70 | 1013.1 |
| 20260905035542 | 26 | 69 | 8.0 | 9.7 | 0.00 | 0.00 | 0.00 | 71 | 1013.1 |
| 20260905035442 | 26 | 69 | 8.0 | 9.7 | 0.00 | 0.00 | 0.00 | 71 | 1013.1 |
| 20260905035340 | 26 | 66 | 6.4 | 9.7 | 0.00 | 0.00 | 0.00 | 70 | 1013.1 |
| 20260905035239 | 26 | 69 | 8.0 | 9.7 | 0.00 | 0.00 | 0.00 | 71 | 1013.1 |
| 20260905035138 | 26 | 68 | 9.7 | 9.7 | 0.00 | 0.00 | 0.00 | 71 | 1013.1 |
| 20260905035036 | 26 | 69 | 8.0 | 9.7 | 0.00 | 0.00 | 0.00 | 71 | 1013.1 |
| 20260905034935 | 26 | 66 | 6.4 | 9.7 | 0.00 | 0.00 | 0.00 | 71 | 1013.1 |
| 20260905034833 | 26 | 62 | 9.7 | 9.7 | 0.00 | 0.00 | 0.00 | 71 | 1013.1 |
| 20260905034726 | 26 | 61 | 6.4 | 9.7 | 0.00 | 0.00 | 0.00 | 71 | 1013.1 |
| 20260905034603 | 26 | 61 | 8.0 | 9.7 | 0.00 | 0.00 | 0.00 | 71 | 1013.1 |
| 20260905034443 | 26 | 59 | 8.0 | 9.7 | 0.00 | 0.00 | 0.00 | 71 | 1013.1 |
| 20260905034339 | 26 | 59 | 8.0 | 9.7 | 0.00 | 0.00 | 0.00 | 70 | 1013.1 |
| 20260905034259 | 26 | 58 | 8.0 | 9.7 | 0.00 | 0.00 | 0.00 | 70 | 1013.2 |
| 20260905034135 | 26 | 59 | 8.0 | 9.7 | 0.00 | 0.00 | 0.00 | 71 | 1013.2 |
| 20260905034033 | 26 | 59 | 8.0 | 11.3 | 0.00 | 0.00 | 0.00 | 71 | 1013.2 |
| 20260905033931 | 26 | 59 | 9.7 | 11.3 | 0.00 | 0.00 | 0.00 | 71 | 1013.2 |
| 20260905033833 | 26 | 59 | 8.0 | 11.3 | 0.00 | 0.00 | 0.00 | 71 | 1013.2 |
| 20260905033731 | 26 | 59 | 6.4 | 11.3 | 0.00 | 0.00 | 0.00 | 71 | 1013.2 |
| 20260905033629 | 26 | 59 | 9.7 | 11.3 | 0.00 | 0.00 | 0.00 | 71 | 1013.2 |
| 20260905033549 | 26 | 52 | 8.0 | 11.3 | 0.00 | 0.00 | 0.00 | 71 | 1013.2 |
| 20260905033425 | 26 | 52 | 8.0 | 11.3 | 0.00 | 0.00 | 0.00 | 71 | 1013.2 |
| 20260905033344 | 26 | 49 | 8.0 | 11.3 | 0.00 | 0.00 | 0.00 | 71 | 1013.2 |
| 20260905033241 | 26 | 52 | 8.0 | 11.3 | 0.00 | 0.00 | 0.00 | 71 | 1013.2 |
| 20260905033212 | 26 | 52 | 6.4 | 11.3 | 0.00 | 0.00 | 0.00 | 71 | 1013.2 |
| 20260905033027 | 26 | 49 | 8.0 | 9.7 | 0.00 | 0.00 | 0.00 | 71 | 1013.2 |
| 20260905032949 | 26 | 51 | 6.4 | 9.7 | 0.00 | 0.00 | 0.00 | 71 | 1013.2 |
| 20260905032826 | 26 | 51 | 8.0 | 9.7 | 0.00 | 0.00 | 0.00 | 71 | 1013.2 |
| 20260905032725 | 26 | 51 | 6.4 | 9.7 | 0.00 | 0.00 | 0.00 | 70 | 1013.3 |
| 20260905032643 | 26 | 48 | 8.0 | 9.7 | 0.00 | 0.00 | 0.00 | 70 | 1013.3 |
| 20260905032541 | 26 | 51 | 8.0 | 9.7 | 0.00 | 0.00 | 0.00 | 70 | 1013.3 |
| 20260905032500 | 26 | 51 | 6.4 | 9.7 | 0.00 | 0.00 | 0.00 | 69 | 1013.3 |
| 20260905032337 | 26 | 51 | 8.0 | 9.7 | 0.00 | 0.00 | 0.00 | 69 | 1013.3 |
| 20260905032236 | 26 | 49 | 6.4 | 9.7 | 0.00 | 0.00 | 0.00 | 69 | 1013.3 |
| 20260905032138 | 26 | 51 | 8.0 | 9.7 | 0.00 | 0.00 | 0.00 | 69 | 1013.3 |
| 20260905032036 | 26 | 51 | 8.0 | 9.7 | 0.00 | 0.00 | 0.00 | 70 | 1013.3 |
| 20260905031957 | 26 | 40 | 8.0 | 9.7 | 0.00 | 0.00 | 0.00 | 70 | 1013.3 |
| 20260905031835 | 26 | 40 | 8.0 | 9.7 | 0.00 | 0.00 | 0.00 | 70 | 1013.3 |
| 20260905031753 | 26 | 34 | 6.4 | 8.0 | 0.00 | 0.00 | 0.00 | 70 | 1013.3 |
| 20260905031723 | 26 | 37 | 3.2 | 4.8 | 0.00 | 0.00 | 0.00 | 70 | 1013.3 |
| 20260905031541 | 26 | 37 | 3.2 | 4.8 | 0.00 | 0.00 | 0.00 | 70 | 1013.3 |
| 20260905031501 | 26 | 37 | 3.2 | 4.8 | 0.00 | 0.00 | 0.00 | 70 | 1013.3 |
| 20260905031343 | 26 | 37 | 3.2 | 8.0 | 0.00 | 0.00 | 0.00 | 70 | 1013.3 |
| 20260905031243 | 26 | 37 | 3.2 | 8.0 | 0.00 | 0.00 | 0.00 | 70 | 1012.6 |
| 20260905031124 | 26 | 37 | 3.2 | 8.0 | 0.00 | 0.00 | 0.00 | 70 | 1012.6 |
| 20260905031026 | 26 | 34 | 3.2 | 8.0 | 0.00 | 0.00 | 0.00 | 70 | 1012.6 |
| 20260905030929 | 26 | 35 | 3.2 | 8.0 | 0.00 | 0.00 | 0.00 | 70 | 1012.6 |
| 20260905030829 | 26 | 35 | 4.8 | 8.0 | 0.00 | 0.00 | 0.00 | 70 | 1012.6 |
| 20260905030733 | 26 | 37 | 3.2 | 8.0 | 0.00 | 0.00 | 0.00 | 70 | 1012.6 |
| 20260905030633 | 26 | 37 | 3.2 | 8.0 | 0.00 | 0.00 | 0.00 | 70 | 1012.6 |
| 20260905030552 | 26 | 37 | 4.8 | 8.0 | 0.00 | 0.00 | 0.00 | 70 | 1012.6 |
| 20260905030431 | 26 | 37 | 4.8 | 8.0 | 0.00 | 0.00 | 0.00 | 70 | 1012.6 |
| 20260905030330 | 26 | 37 | 4.8 | 8.0 | 0.00 | 0.00 | 0.00 | 69 | 1012.6 |